Wetterdaten: Sonntag, 04.03.2018
Datum Zeit Temp. I. Temp. A. Feuchte I. Feuchte A. Luftdruck Regen Wind Richtung Richtung Taupunkt Windchill
04.03.2018 00:01 24,5 °C -4,2 °C 37 % 59 % 1003,3 hPa 0,0 l/m² 10,1 km/h (2 Bft) O 90 ° -11,0 °C -8,2 °C
04.03.2018 00:03 24,5 °C -4,2 °C 37 % 59 % 1003,3 hPa 0,0 l/m² 19,4 km/h (3 Bft) O-SO 112 ° -11,0 °C -14,7 °C
04.03.2018 00:05 24,5 °C -4,2 °C 37 % 59 % 1003,4 hPa 0,0 l/m² 13,7 km/h (3 Bft) O-SO 112 ° -11,0 °C -11,2 °C
04.03.2018 00:07 24,5 °C -4,2 °C 37 % 59 % 1003,4 hPa 0,0 l/m² 13,0 km/h (3 Bft) O-SO 112 ° -11,0 °C -10,6 °C
04.03.2018 00:09 24,5 °C -4,2 °C 37 % 59 % 1003,3 hPa 0,0 l/m² 18,0 km/h (3 Bft) O-SO 112 ° -11,0 °C -14,0 °C
04.03.2018 00:11 24,5 °C -4,2 °C 37 % 59 % 1003,3 hPa 0,0 l/m² 16,6 km/h (3 Bft) O-SO 112 ° -11,0 °C -13,1 °C
04.03.2018 00:13 24,5 °C -4,2 °C 37 % 59 % 1003,4 hPa 0,0 l/m² 11,9 km/h (2 Bft) O-SO 112 ° -11,0 °C -9,8 °C
04.03.2018 00:15 24,4 °C -4,2 °C 37 % 59 % 1003,3 hPa 0,0 l/m² 11,2 km/h (2 Bft) O-SO 112 ° -11,0 °C -9,2 °C
04.03.2018 00:17 24,4 °C -4,2 °C 37 % 59 % 1003,3 hPa 0,0 l/m² 16,2 km/h (3 Bft) O-SO 112 ° -11,0 °C -12,9 °C
04.03.2018 00:19 24,4 °C -4,2 °C 37 % 59 % 1003,4 hPa 0,0 l/m² 16,2 km/h (3 Bft) O-SO 112 ° -11,0 °C -12,9 °C
04.03.2018 00:21 24,4 °C -4,2 °C 37 % 59 % 1003,4 hPa 0,0 l/m² 15,8 km/h (3 Bft) O-SO 112 ° -11,0 °C -12,6 °C
04.03.2018 00:23 24,4 °C -4,2 °C 37 % 59 % 1003,4 hPa 0,0 l/m² 15,1 km/h (3 Bft) O-SO 112 ° -11,0 °C -12,1 °C
04.03.2018 00:25 24,4 °C -4,2 °C 37 % 59 % 1003,4 hPa 0,0 l/m² 18,7 km/h (3 Bft) O-SO 112 ° -11,0 °C -14,4 °C
04.03.2018 00:27 24,4 °C -4,2 °C 37 % 59 % 1003,3 hPa 0,0 l/m² 11,9 km/h (2 Bft) O-SO 112 ° -11,0 °C -9,8 °C
04.03.2018 00:29 24,4 °C -4,2 °C 37 % 59 % 1003,4 hPa 0,0 l/m² 15,8 km/h (3 Bft) O-SO 112 ° -11,0 °C -12,6 °C
04.03.2018 00:31 24,4 °C -4,2 °C 37 % 59 % 1003,5 hPa 0,0 l/m² 14,8 km/h (3 Bft) O-SO 112 ° -11,0 °C -11,9 °C
04.03.2018 00:33 24,4 °C -4,3 °C 37 % 59 % 1003,5 hPa 0,0 l/m² 14,0 km/h (3 Bft) O-SO 112 ° -11,1 °C -11,5 °C
04.03.2018 00:35 24,4 °C -4,3 °C 37 % 59 % 1003,5 hPa 0,0 l/m² 12,2 km/h (2 Bft) O-SO 112 ° -11,1 °C -10,1 °C
04.03.2018 00:37 24,4 °C -4,3 °C 37 % 59 % 1003,6 hPa 0,0 l/m² 14,4 km/h (3 Bft) O-SO 112 ° -11,1 °C -11,8 °C
04.03.2018 00:39 24,3 °C -4,3 °C 37 % 59 % 1003,6 hPa 0,0 l/m² 8,6 km/h (2 Bft) O-SO 112 ° -11,1 °C -6,8 °C
04.03.2018 00:41 24,4 °C -4,4 °C 37 % 59 % 1003,6 hPa 0,0 l/m² 7,9 km/h (2 Bft) O-SO 112 ° -11,2 °C -6,2 °C
04.03.2018 00:43 24,3 °C -4,4 °C 37 % 59 % 1003,5 hPa 0,0 l/m² 12,6 km/h (3 Bft) O-SO 112 ° -11,2 °C -10,6 °C
04.03.2018 00:45 24,3 °C -4,3 °C 37 % 59 % 1003,6 hPa 0,0 l/m² 13,3 km/h (3 Bft) O-SO 112 ° -11,1 °C -11,0 °C
04.03.2018 00:47 24,3 °C -4,4 °C 37 % 59 % 1003,6 hPa 0,0 l/m² 11,5 km/h (2 Bft) O-SO 112 ° -11,2 °C -9,7 °C
04.03.2018 00:49 24,3 °C -4,4 °C 37 % 59 % 1003,5 hPa 0,0 l/m² 11,5 km/h (2 Bft) O-SO 112 ° -11,2 °C -9,7 °C
04.03.2018 00:51 24,3 °C -4,4 °C 37 % 59 % 1003,4 hPa 0,0 l/m² 11,9 km/h (2 Bft) O-SO 112 ° -11,2 °C -10,0 °C
04.03.2018 00:53 24,3 °C -4,3 °C 37 % 59 % 1003,4 hPa 0,0 l/m² 12,6 km/h (3 Bft) O-SO 112 ° -11,1 °C -10,4 °C
04.03.2018 00:55 24,3 °C -4,4 °C 37 % 59 % 1003,5 hPa 0,0 l/m² 15,5 km/h (3 Bft) O-SO 112 ° -11,2 °C -12,6 °C
04.03.2018 00:57 24,3 °C -4,3 °C 37 % 59 % 1003,4 hPa 0,0 l/m² 13,0 km/h (3 Bft) O-SO 112 ° -11,1 °C -10,7 °C
04.03.2018 00:59 24,3 °C -4,3 °C 37 % 59 % 1003,4 hPa 0,0 l/m² 12,2 km/h (2 Bft) O-SO 112 ° -11,1 °C -10,1 °C
04.03.2018 01:01 24,3 °C -4,3 °C 37 % 59 % 1003,4 hPa 0,0 l/m² 11,5 km/h (2 Bft) O-SO 112 ° -11,1 °C -9,5 °C
04.03.2018 01:03 24,3 °C -4,2 °C 37 % 59 % 1003,4 hPa 0,0 l/m² 11,9 km/h (2 Bft) O-SO 112 ° -11,0 °C -9,8 °C
04.03.2018 01:05 24,3 °C -4,3 °C 37 % 59 % 1003,5 hPa 0,0 l/m² 13,0 km/h (3 Bft) O-SO 112 ° -11,1 °C -10,7 °C
04.03.2018 01:07 24,3 °C -4,2 °C 37 % 59 % 1003,5 hPa 0,0 l/m² 9,4 km/h (2 Bft) O-SO 112 ° -11,0 °C -7,5 °C
04.03.2018 01:09 24,3 °C -4,4 °C 37 % 59 % 1003,5 hPa 0,0 l/m² 7,6 km/h (2 Bft) O 90 ° -11,2 °C -5,8 °C
04.03.2018 01:11 24,2 °C -4,4 °C 37 % 59 % 1003,5 hPa 0,0 l/m² 7,9 km/h (2 Bft) O-SO 112 ° -11,2 °C -6,2 °C
04.03.2018 01:13 24,3 °C -4,4 °C 37 % 59 % 1003,6 hPa 0,0 l/m² 10,4 km/h (2 Bft) SO 135 ° -11,2 °C -8,7 °C
04.03.2018 01:15 24,2 °C -4,4 °C 37 % 59 % 1003,6 hPa 0,0 l/m² 9,7 km/h (2 Bft) O-SO 112 ° -11,2 °C -8,0 °C
04.03.2018 01:17 24,2 °C -4,4 °C 37 % 59 % 1003,6 hPa 0,0 l/m² 10,1 km/h (2 Bft) O-SO 112 ° -11,2 °C -8,4 °C
04.03.2018 01:19 24,2 °C -4,4 °C 37 % 59 % 1003,5 hPa 0,0 l/m² 10,1 km/h (2 Bft) O-SO 112 ° -11,2 °C -8,4 °C
04.03.2018 01:21 24,2 °C -4,4 °C 37 % 60 % 1003,6 hPa 0,0 l/m² 12,6 km/h (3 Bft) O 90 ° -11,0 °C -10,6 °C
04.03.2018 01:23 24,2 °C -4,4 °C 37 % 60 % 1003,6 hPa 0,0 l/m² 14,8 km/h (3 Bft) O-SO 112 ° -11,0 °C -12,2 °C
04.03.2018 01:25 24,2 °C -4,4 °C 37 % 60 % 1003,7 hPa 0,0 l/m² 7,2 km/h (2 Bft) SO 135 ° -11,0 °C -5,3 °C
04.03.2018 01:27 24,2 °C -4,5 °C 37 % 61 % 1003,7 hPa 0,0 l/m² 7,2 km/h (2 Bft) O-SO 112 ° -10,9 °C -5,4 °C
04.03.2018 01:29 24,2 °C -4,5 °C 37 % 62 % 1003,6 hPa 0,0 l/m² 9,4 km/h (2 Bft) SO 135 ° -10,7 °C -7,8 °C
04.03.2018 01:31 24,2 °C -4,6 °C 37 % 62 % 1003,7 hPa 0,0 l/m² 9,4 km/h (2 Bft) SO 135 ° -10,7 °C -7,9 °C
04.03.2018 01:33 24,2 °C -4,7 °C 37 % 62 % 1003,7 hPa 0,0 l/m² 9,4 km/h (2 Bft) O 90 ° -10,8 °C -8,1 °C
04.03.2018 01:35 24,2 °C -4,7 °C 37 % 63 % 1003,7 hPa 0,0 l/m² 9,4 km/h (2 Bft) O 90 ° -10,6 °C -8,1 °C
04.03.2018 01:37 24,2 °C -4,7 °C 37 % 63 % 1003,7 hPa 0,0 l/m² 13,7 km/h (3 Bft) O-SO 112 ° -10,6 °C -11,7 °C
04.03.2018 01:39 24,2 °C -4,8 °C 37 % 64 % 1003,7 hPa 0,0 l/m² 7,9 km/h (2 Bft) SO 135 ° -10,5 °C -6,6 °C
04.03.2018 01:41 24,2 °C -4,8 °C 37 % 64 % 1003,8 hPa 0,0 l/m² 8,3 km/h (2 Bft) O-SO 112 ° -10,5 °C -7,0 °C
04.03.2018 01:43 24,2 °C -4,9 °C 37 % 65 % 1003,8 hPa 0,0 l/m² 11,5 km/h (2 Bft) O-SO 112 ° -10,4 °C -10,2 °C
04.03.2018 01:45 24,2 °C -4,9 °C 37 % 65 % 1003,8 hPa 0,0 l/m² 11,5 km/h (2 Bft) O 90 ° -10,4 °C -10,2 °C
04.03.2018 01:47 24,2 °C -5,0 °C 37 % 66 % 1003,7 hPa 0,0 l/m² 12,6 km/h (3 Bft) O-SO 112 ° -10,3 °C -11,2 °C
04.03.2018 01:49 24,2 °C -5,0 °C 37 % 66 % 1003,8 hPa 0,0 l/m² 12,6 km/h (3 Bft) O-SO 112 ° -10,3 °C -11,2 °C
04.03.2018 01:51 24,2 °C -5,1 °C 37 % 66 % 1003,8 hPa 0,0 l/m² 4,0 km/h (1 Bft) O 90 ° -10,4 °C -5,1 °C
04.03.2018 01:53 24,2 °C -5,1 °C 37 % 67 % 1003,8 hPa 0,0 l/m² 8,3 km/h (2 Bft) O-SO 112 ° -10,2 °C -7,3 °C
04.03.2018 01:55 24,2 °C -5,1 °C 37 % 67 % 1003,7 hPa 0,0 l/m² 11,9 km/h (2 Bft) O-SO 112 ° -10,2 °C -10,8 °C
04.03.2018 01:57 24,2 °C -5,1 °C 37 % 67 % 1003,7 hPa 0,0 l/m² 13,7 km/h (3 Bft) O-SO 112 ° -10,2 °C -12,2 °C
04.03.2018 01:59 24,2 °C -5,1 °C 37 % 67 % 1003,8 hPa 0,0 l/m² 9,7 km/h (2 Bft) O-SO 112 ° -10,2 °C -8,8 °C
04.03.2018 02:01 24,2 °C -5,2 °C 37 % 68 % 1003,8 hPa 0,0 l/m² 11,9 km/h (2 Bft) O-SO 112 ° -10,2 °C -10,9 °C
04.03.2018 02:03 24,2 °C -5,2 °C 37 % 68 % 1003,8 hPa 0,0 l/m² 11,9 km/h (2 Bft) O-SO 112 ° -10,2 °C -10,9 °C
04.03.2018 02:05 24,2 °C -5,3 °C 37 % 68 % 1003,7 hPa 0,0 l/m² 10,8 km/h (2 Bft) O-SO 112 ° -10,3 °C -10,1 °C
04.03.2018 02:07 24,2 °C -5,3 °C 37 % 69 % 1003,6 hPa 0,0 l/m² 9,7 km/h (2 Bft) O-SO 112 ° -10,1 °C -9,0 °C
04.03.2018 02:09 24,2 °C -5,4 °C 37 % 69 % 1003,6 hPa 0,0 l/m² 13,0 km/h (3 Bft) O-SO 112 ° -10,2 °C -12,0 °C
04.03.2018 02:11 24,2 °C -5,4 °C 37 % 69 % 1003,6 hPa 0,0 l/m² 7,6 km/h (2 Bft) O-SO 112 ° -10,2 °C -6,9 °C
04.03.2018 02:13 24,2 °C -5,4 °C 37 % 70 % 1003,7 hPa 0,0 l/m² 10,8 km/h (2 Bft) O-SO 112 ° -10,0 °C -10,2 °C
04.03.2018 02:15 24,2 °C -5,4 °C 37 % 70 % 1003,6 hPa 0,0 l/m² 13,7 km/h (3 Bft) O-SO 112 ° -10,0 °C -12,6 °C
04.03.2018 02:17 24,2 °C -5,5 °C 37 % 70 % 1003,6 hPa 0,0 l/m² 13,3 km/h (3 Bft) O-SO 112 ° -10,1 °C -12,4 °C
04.03.2018 02:19 24,2 °C -5,5 °C 37 % 70 % 1003,6 hPa 0,0 l/m² 13,3 km/h (3 Bft) O-SO 112 ° -10,1 °C -12,4 °C
04.03.2018 02:21 24,2 °C -5,5 °C 37 % 70 % 1003,6 hPa 0,0 l/m² 10,8 km/h (2 Bft) O 90 ° -10,1 °C -10,3 °C
04.03.2018 02:23 24,2 °C -5,6 °C 37 % 70 % 1003,5 hPa 0,0 l/m² 7,2 km/h (2 Bft) O 90 ° -10,2 °C -6,6 °C
04.03.2018 02:25 24,2 °C -5,6 °C 37 % 70 % 1003,5 hPa 0,0 l/m² 8,3 km/h (2 Bft) O-SO 112 ° -10,2 °C -7,9 °C
04.03.2018 02:27 24,2 °C -5,6 °C 37 % 70 % 1003,4 hPa 0,0 l/m² 10,4 km/h (2 Bft) O-SO 112 ° -10,2 °C -10,0 °C
04.03.2018 02:29 24,2 °C -5,6 °C 37 % 71 % 1003,4 hPa 0,0 l/m² 7,9 km/h (2 Bft) O-SO 112 ° -10,0 °C -7,4 °C
04.03.2018 02:31 24,2 °C -5,6 °C 37 % 71 % 1003,3 hPa 0,0 l/m² 8,3 km/h (2 Bft) O 90 ° -10,0 °C -7,9 °C
04.03.2018 02:33 24,2 °C -5,6 °C 37 % 71 % 1003,2 hPa 0,0 l/m² 7,6 km/h (2 Bft) O-SO 112 ° -10,0 °C -7,1 °C
04.03.2018 02:35 24,2 °C -5,7 °C 37 % 71 % 1003,2 hPa 0,0 l/m² 5,8 km/h (2 Bft) O 90 ° -10,1 °C -5,7 °C
04.03.2018 02:37 24,2 °C -5,7 °C 37 % 71 % 1003,2 hPa 0,0 l/m² 14,0 km/h (3 Bft) O-NO 67 ° -10,1 °C -13,2 °C
04.03.2018 02:39 24,1 °C -5,7 °C 37 % 71 % 1003,1 hPa 0,0 l/m² 13,7 km/h (3 Bft) O-SO 112 ° -10,1 °C -12,9 °C
04.03.2018 02:41 24,1 °C -5,7 °C 37 % 71 % 1003,2 hPa 0,0 l/m² 9,0 km/h (2 Bft) O-SO 112 ° -10,1 °C -8,7 °C
04.03.2018 02:43 24,2 °C -5,7 °C 37 % 71 % 1003,2 hPa 0,0 l/m² 4,7 km/h (1 Bft) O 90 ° -10,1 °C -5,7 °C
04.03.2018 02:45 24,1 °C -5,7 °C 37 % 71 % 1003,1 hPa 0,0 l/m² 11,9 km/h (2 Bft) O 90 ° -10,1 °C -11,5 °C
04.03.2018 02:47 24,1 °C -5,6 °C 37 % 71 % 1003,2 hPa 0,0 l/m² 11,2 km/h (2 Bft) O-SO 112 ° -10,0 °C -10,8 °C
04.03.2018 02:49 24,1 °C -5,6 °C 37 % 71 % 1003,2 hPa 0,0 l/m² 11,2 km/h (2 Bft) O-SO 112 ° -10,0 °C -10,8 °C
04.03.2018 02:51 24,1 °C -5,6 °C 37 % 71 % 1003,1 hPa 0,0 l/m² 14,8 km/h (3 Bft) O-SO 112 ° -10,0 °C -13,6 °C
04.03.2018 02:53 24,1 °C -5,6 °C 37 % 71 % 1003,2 hPa 0,0 l/m² 6,8 km/h (2 Bft) O-SO 112 ° -10,0 °C -6,1 °C
04.03.2018 02:55 24,1 °C -5,6 °C 37 % 71 % 1003,2 hPa 0,0 l/m² 8,6 km/h (2 Bft) O-SO 112 ° -10,0 °C -8,2 °C
04.03.2018 02:57 24,1 °C -5,6 °C 37 % 71 % 1003,2 hPa 0,0 l/m² 9,4 km/h (2 Bft) O-SO 112 ° -10,0 °C -9,0 °C
04.03.2018 02:59 24,1 °C -5,5 °C 37 % 71 % 1003,2 hPa 0,0 l/m² 12,2 km/h (2 Bft) O-SO 112 ° -9,9 °C -11,5 °C
04.03.2018 03:01 24,1 °C -5,5 °C 37 % 70 % 1003,1 hPa 0,0 l/m² 10,1 km/h (2 Bft) O-SO 112 ° -10,1 °C -9,6 °C
04.03.2018 03:03 24,1 °C -5,4 °C 37 % 70 % 1003,1 hPa 0,0 l/m² 6,1 km/h (2 Bft) O-SO 112 ° -10,0 °C -5,4 °C
04.03.2018 03:05 24,1 °C -5,4 °C 37 % 70 % 1003,1 hPa 0,0 l/m² 12,2 km/h (2 Bft) O-SO 112 ° -10,0 °C -11,4 °C
04.03.2018 03:07 24,1 °C -5,4 °C 37 % 70 % 1003,2 hPa 0,0 l/m² 13,3 km/h (3 Bft) O-SO 112 ° -10,0 °C -12,3 °C
04.03.2018 03:09 24,1 °C -5,4 °C 37 % 70 % 1003,1 hPa 0,0 l/m² 12,6 km/h (3 Bft) O-SO 112 ° -10,0 °C -11,7 °C
04.03.2018 03:11 24,1 °C -5,4 °C 37 % 70 % 1003,2 hPa 0,0 l/m² 12,2 km/h (2 Bft) O 90 ° -10,0 °C -11,4 °C
04.03.2018 03:13 24,1 °C -5,5 °C 37 % 70 % 1003,1 hPa 0,0 l/m² 8,6 km/h (2 Bft) O-SO 112 ° -10,1 °C -8,1 °C
04.03.2018 03:15 24,1 °C -5,5 °C 37 % 70 % 1003,2 hPa 0,0 l/m² 10,8 km/h (2 Bft) O-SO 112 ° -10,1 °C -10,3 °C
04.03.2018 03:17 24,1 °C -5,5 °C 36 % 70 % 1003,2 hPa 0,0 l/m² 7,9 km/h (2 Bft) O-SO 112 ° -10,1 °C -7,3 °C
04.03.2018 03:19 24,1 °C -5,5 °C 36 % 70 % 1003,3 hPa 0,0 l/m² 7,9 km/h (2 Bft) O-SO 112 ° -10,1 °C -7,3 °C
04.03.2018 03:21 24,1 °C -5,6 °C 37 % 70 % 1003,3 hPa 0,0 l/m² 8,3 km/h (2 Bft) O-SO 112 ° -10,2 °C -7,9 °C
04.03.2018 03:23 24,1 °C -5,6 °C 36 % 70 % 1003,2 hPa 0,0 l/m² 4,0 km/h (1 Bft) O 90 ° -10,2 °C -5,6 °C
04.03.2018 03:25 24,0 °C -5,6 °C 36 % 70 % 1003,2 hPa 0,0 l/m² 7,6 km/h (2 Bft) O 90 ° -10,2 °C -7,1 °C
04.03.2018 03:27 24,0 °C -5,7 °C 36 % 70 % 1003,3 hPa 0,0 l/m² 7,2 km/h (2 Bft) O 90 ° -10,3 °C -6,7 °C
04.03.2018 03:29 24,0 °C -5,7 °C 36 % 70 % 1003,2 hPa 0,0 l/m² 5,4 km/h (2 Bft) O 90 ° -10,3 °C -5,7 °C
04.03.2018 03:31 24,0 °C -5,8 °C 36 % 70 % 1003,2 hPa 0,0 l/m² 3,6 km/h (1 Bft) O 90 ° -10,4 °C -5,8 °C
04.03.2018 03:33 24,0 °C -5,9 °C 36 % 69 % 1003,2 hPa 0,0 l/m² 3,6 km/h (1 Bft) O 90 ° -10,6 °C -5,9 °C
04.03.2018 03:35 24,0 °C -5,9 °C 36 % 69 % 1003,2 hPa 0,0 l/m² 3,6 km/h (1 Bft) O 90 ° -10,6 °C -5,9 °C
04.03.2018 03:37 24,0 °C -5,9 °C 36 % 69 % 1003,2 hPa 0,0 l/m² 4,0 km/h (1 Bft) O 90 ° -10,6 °C -5,9 °C
04.03.2018 03:39 24,0 °C -6,1 °C 36 % 69 % 1003,1 hPa 0,0 l/m² 4,7 km/h (1 Bft) O 90 ° -10,8 °C -6,1 °C
04.03.2018 03:41 24,0 °C -6,1 °C 36 % 69 % 1003,1 hPa 0,0 l/m² 0,0 km/h (0 Bft) O 90 ° -10,8 °C -6,1 °C
04.03.2018 03:43 24,0 °C -6,2 °C 36 % 69 % 1003,2 hPa 0,0 l/m² 0,0 km/h (0 Bft) O 90 ° -10,9 °C -6,2 °C
04.03.2018 03:45 24,0 °C -6,2 °C 36 % 69 % 1003,1 hPa 0,0 l/m² 2,5 km/h (1 Bft) O 90 ° -10,9 °C -6,2 °C
04.03.2018 03:47 24,0 °C -6,2 °C 36 % 70 % 1003,0 hPa 0,0 l/m² 0,0 km/h (0 Bft) O 90 ° -10,8 °C -6,2 °C
04.03.2018 03:49 24,0 °C -6,3 °C 36 % 69 % 1003,1 hPa 0,0 l/m² 0,0 km/h (0 Bft) O 90 ° -11,0 °C -6,3 °C
04.03.2018 03:51 24,0 °C -6,3 °C 37 % 69 % 1003,0 hPa 0,0 l/m² 1,4 km/h (1 Bft) O 90 ° -11,0 °C -6,3 °C
04.03.2018 03:53 24,0 °C -6,4 °C 36 % 69 % 1003,0 hPa 0,0 l/m² 4,3 km/h (1 Bft) O-NO 67 ° -11,1 °C -6,4 °C
04.03.2018 03:55 24,0 °C -6,4 °C 36 % 69 % 1002,9 hPa 0,0 l/m² 3,6 km/h (1 Bft) O-NO 67 ° -11,1 °C -6,4 °C
04.03.2018 03:57 24,0 °C -6,4 °C 36 % 69 % 1003,0 hPa 0,0 l/m² 5,8 km/h (2 Bft) O-NO 67 ° -11,1 °C -6,4 °C
04.03.2018 03:59 24,0 °C -6,5 °C 37 % 69 % 1003,0 hPa 0,0 l/m² 5,8 km/h (2 Bft) O 90 ° -11,2 °C -6,5 °C
04.03.2018 04:01 24,0 °C -6,5 °C 36 % 69 % 1003,0 hPa 0,0 l/m² 6,1 km/h (2 Bft) O-NO 67 ° -11,2 °C -6,5 °C
04.03.2018 04:03 24,0 °C -6,5 °C 36 % 69 % 1003,1 hPa 0,0 l/m² 5,0 km/h (1 Bft) O 90 ° -11,2 °C -6,5 °C
04.03.2018 04:05 24,0 °C -6,6 °C 36 % 69 % 1003,1 hPa 0,0 l/m² 4,0 km/h (1 Bft) O 90 ° -11,3 °C -6,6 °C
04.03.2018 04:07 24,0 °C -6,6 °C 36 % 69 % 1003,1 hPa 0,0 l/m² 2,2 km/h (1 Bft) O 90 ° -11,3 °C -6,6 °C
04.03.2018 04:09 24,0 °C -6,6 °C 36 % 69 % 1003,1 hPa 0,0 l/m² 4,0 km/h (1 Bft) O 90 ° -11,3 °C -6,6 °C
04.03.2018 04:11 24,0 °C -6,6 °C 36 % 69 % 1003,2 hPa 0,0 l/m² 2,2 km/h (1 Bft) O 90 ° -11,3 °C -6,6 °C
04.03.2018 04:13 24,0 °C -6,6 °C 36 % 69 % 1003,1 hPa 0,0 l/m² 0,0 km/h (0 Bft) O 90 ° -11,3 °C -6,6 °C
04.03.2018 04:15 24,0 °C -6,6 °C 36 % 69 % 1003,1 hPa 0,0 l/m² 1,4 km/h (1 Bft) O 90 ° -11,3 °C -6,6 °C
04.03.2018 04:17 24,0 °C -6,7 °C 36 % 69 % 1003,1 hPa 0,0 l/m² 1,4 km/h (1 Bft) O 90 ° -11,4 °C -6,7 °C
04.03.2018 04:19 24,0 °C -6,6 °C 36 % 70 % 1003,1 hPa 0,0 l/m² 4,7 km/h (1 Bft) O 90 ° -11,1 °C -6,6 °C
04.03.2018 04:21 24,0 °C -6,6 °C 36 % 70 % 1003,1 hPa 0,0 l/m² 4,7 km/h (1 Bft) O 90 ° -11,1 °C -6,6 °C
04.03.2018 04:23 24,0 °C -6,6 °C 36 % 70 % 1003,0 hPa 0,0 l/m² 3,6 km/h (1 Bft) O 90 ° -11,1 °C -6,6 °C
04.03.2018 04:25 24,0 °C -6,6 °C 36 % 70 % 1003,1 hPa 0,0 l/m² 3,6 km/h (1 Bft) O 90 ° -11,1 °C -6,6 °C
04.03.2018 04:27 24,0 °C -6,6 °C 36 % 70 % 1002,9 hPa 0,0 l/m² 4,3 km/h (1 Bft) O 90 ° -11,1 °C -6,6 °C
04.03.2018 04:29 24,0 °C -6,6 °C 36 % 70 % 1003,0 hPa 0,0 l/m² 3,2 km/h (1 Bft) O 90 ° -11,1 °C -6,6 °C
04.03.2018 04:31 24,0 °C -6,6 °C 36 % 70 % 1002,9 hPa 0,0 l/m² 1,8 km/h (1 Bft) O 90 ° -11,1 °C -6,6 °C
04.03.2018 04:33 24,0 °C -6,6 °C 36 % 70 % 1003,0 hPa 0,0 l/m² 3,6 km/h (1 Bft) O 90 ° -11,1 °C -6,6 °C
04.03.2018 04:35 24,0 °C -6,5 °C 36 % 70 % 1003,0 hPa 0,0 l/m² 2,2 km/h (1 Bft) O 90 ° -11,0 °C -6,5 °C
04.03.2018 04:37 24,0 °C -6,5 °C 36 % 71 % 1003,1 hPa 0,0 l/m² 0,0 km/h (0 Bft) O 90 ° -10,9 °C -6,5 °C
04.03.2018 04:39 24,0 °C -6,5 °C 36 % 71 % 1002,8 hPa 0,0 l/m² 2,9 km/h (1 Bft) O 90 ° -10,9 °C -6,5 °C
04.03.2018 04:41 24,0 °C -6,5 °C 36 % 71 % 1002,9 hPa 0,0 l/m² 5,0 km/h (1 Bft) O 90 ° -10,9 °C -6,5 °C
04.03.2018 04:43 24,0 °C -6,5 °C 36 % 71 % 1002,9 hPa 0,0 l/m² 0,0 km/h (0 Bft) O 90 ° -10,9 °C -6,5 °C
04.03.2018 04:45 24,0 °C -6,4 °C 36 % 71 % 1002,8 hPa 0,0 l/m² 4,0 km/h (1 Bft) O 90 ° -10,8 °C -6,4 °C
04.03.2018 04:47 24,0 °C -6,4 °C 36 % 71 % 1002,9 hPa 0,0 l/m² 2,9 km/h (1 Bft) O 90 ° -10,8 °C -6,4 °C
04.03.2018 04:49 24,0 °C -6,4 °C 36 % 71 % 1002,9 hPa 0,0 l/m² 5,0 km/h (1 Bft) O-NO 67 ° -10,8 °C -6,4 °C
04.03.2018 04:51 24,0 °C -6,4 °C 36 % 71 % 1002,9 hPa 0,0 l/m² 5,0 km/h (1 Bft) O-NO 67 ° -10,8 °C -6,4 °C
04.03.2018 04:53 24,0 °C -6,4 °C 36 % 71 % 1002,9 hPa 0,0 l/m² 5,4 km/h (2 Bft) O-NO 67 ° -10,8 °C -6,4 °C
04.03.2018 04:55 24,0 °C -6,4 °C 36 % 70 % 1002,8 hPa 0,0 l/m² 4,3 km/h (1 Bft) O-NO 67 ° -10,9 °C -6,4 °C
04.03.2018 04:57 24,0 °C -6,4 °C 36 % 70 % 1002,8 hPa 0,0 l/m² 2,5 km/h (1 Bft) O-NO 67 ° -10,9 °C -6,4 °C
04.03.2018 04:59 24,0 °C -6,4 °C 36 % 70 % 1002,9 hPa 0,0 l/m² 6,8 km/h (2 Bft) O 90 ° -10,9 °C -6,9 °C
04.03.2018 05:01 24,0 °C -6,3 °C 36 % 70 % 1003,0 hPa 0,0 l/m² 4,7 km/h (1 Bft) O 90 ° -10,9 °C -6,3 °C
04.03.2018 05:03 24,0 °C -6,2 °C 36 % 70 % 1002,8 hPa 0,0 l/m² 2,9 km/h (1 Bft) O 90 ° -10,8 °C -6,2 °C
04.03.2018 05:05 24,0 °C -6,2 °C 36 % 70 % 1003,0 hPa 0,0 l/m² 6,1 km/h (2 Bft) O-SO 112 ° -10,8 °C -6,2 °C
04.03.2018 05:07 24,0 °C -6,2 °C 36 % 70 % 1002,9 hPa 0,0 l/m² 2,2 km/h (1 Bft) O-SO 112 ° -10,8 °C -6,2 °C
04.03.2018 05:09 24,0 °C -6,2 °C 36 % 70 % 1002,9 hPa 0,0 l/m² 3,6 km/h (1 Bft) O-SO 112 ° -10,8 °C -6,2 °C
04.03.2018 05:11 24,0 °C -6,2 °C 36 % 70 % 1002,9 hPa 0,0 l/m² 6,1 km/h (2 Bft) O 90 ° -10,8 °C -6,2 °C
04.03.2018 05:13 24,0 °C -6,2 °C 36 % 70 % 1002,9 hPa 0,0 l/m² 6,5 km/h (2 Bft) O 90 ° -10,8 °C -6,3 °C
04.03.2018 05:15 24,0 °C -6,2 °C 36 % 70 % 1002,9 hPa 0,0 l/m² 0,0 km/h (0 Bft) O 90 ° -10,8 °C -6,2 °C
04.03.2018 05:17 24,0 °C -6,2 °C 36 % 70 % 1002,9 hPa 0,0 l/m² 0,0 km/h (0 Bft) O 90 ° -10,8 °C -6,2 °C
04.03.2018 05:19 24,0 °C -6,2 °C 36 % 70 % 1002,9 hPa 0,0 l/m² 4,3 km/h (1 Bft) O 90 ° -10,8 °C -6,2 °C
04.03.2018 05:21 24,0 °C -6,2 °C 36 % 70 % 1003,0 hPa 0,0 l/m² 4,3 km/h (1 Bft) O 90 ° -10,8 °C -6,2 °C
04.03.2018 05:23 24,0 °C -6,2 °C 36 % 70 % 1002,9 hPa 0,0 l/m² 3,6 km/h (1 Bft) O 90 ° -10,8 °C -6,2 °C
04.03.2018 05:25 24,0 °C -6,2 °C 36 % 70 % 1003,0 hPa 0,0 l/m² 4,0 km/h (1 Bft) O-NO 67 ° -10,8 °C -6,2 °C
04.03.2018 05:27 24,0 °C -6,2 °C 36 % 70 % 1002,9 hPa 0,0 l/m² 4,7 km/h (1 Bft) NO 45 ° -10,8 °C -6,2 °C
04.03.2018 05:29 24,0 °C -6,2 °C 36 % 70 % 1002,8 hPa 0,0 l/m² 3,2 km/h (1 Bft) O-NO 67 ° -10,8 °C -6,2 °C
04.03.2018 05:31 24,0 °C -6,2 °C 36 % 70 % 1003,0 hPa 0,0 l/m² 4,0 km/h (1 Bft) O 90 ° -10,8 °C -6,2 °C
04.03.2018 05:33 24,0 °C -6,2 °C 36 % 70 % 1002,9 hPa 0,0 l/m² 2,5 km/h (1 Bft) O-NO 67 ° -10,8 °C -6,2 °C
04.03.2018 05:35 24,0 °C -6,2 °C 36 % 70 % 1002,8 hPa 0,0 l/m² 5,8 km/h (2 Bft) O-NO 67 ° -10,8 °C -6,2 °C
04.03.2018 05:37 24,0 °C -6,2 °C 36 % 70 % 1002,8 hPa 0,0 l/m² 6,5 km/h (2 Bft) O 90 ° -10,8 °C -6,3 °C
04.03.2018 05:39 24,0 °C -6,2 °C 36 % 70 % 1002,8 hPa 0,0 l/m² 4,0 km/h (1 Bft) O-NO 67 ° -10,8 °C -6,2 °C
04.03.2018 05:41 24,0 °C -6,2 °C 36 % 70 % 1002,8 hPa 0,0 l/m² 7,2 km/h (2 Bft) O 90 ° -10,8 °C -7,2 °C
04.03.2018 05:43 24,0 °C -6,2 °C 36 % 70 % 1002,8 hPa 0,0 l/m² 3,2 km/h (1 Bft) O-NO 67 ° -10,8 °C -6,2 °C
04.03.2018 05:45 24,0 °C -6,2 °C 36 % 70 % 1002,7 hPa 0,0 l/m² 6,8 km/h (2 Bft) O 90 ° -10,8 °C -6,7 °C
04.03.2018 05:47 24,0 °C -6,2 °C 36 % 70 % 1002,8 hPa 0,0 l/m² 6,8 km/h (2 Bft) O 90 ° -10,8 °C -6,7 °C
04.03.2018 05:49 24,0 °C -6,2 °C 36 % 70 % 1002,7 hPa 0,0 l/m² 4,7 km/h (1 Bft) O 90 ° -10,8 °C -6,2 °C
04.03.2018 05:51 24,0 °C -6,2 °C 36 % 70 % 1002,7 hPa 0,0 l/m² 4,7 km/h (1 Bft) O 90 ° -10,8 °C -6,2 °C
04.03.2018 05:53 24,0 °C -6,2 °C 36 % 70 % 1002,7 hPa 0,0 l/m² 2,5 km/h (1 Bft) O 90 ° -10,8 °C -6,2 °C
04.03.2018 05:55 24,0 °C -6,2 °C 36 % 70 % 1002,7 hPa 0,0 l/m² 10,4 km/h (2 Bft) O 90 ° -10,8 °C -10,7 °C
04.03.2018 05:57 24,0 °C -6,2 °C 36 % 70 % 1002,7 hPa 0,0 l/m² 4,0 km/h (1 Bft) O 90 ° -10,8 °C -6,2 °C
04.03.2018 05:59 24,0 °C -6,2 °C 36 % 70 % 1002,6 hPa 0,0 l/m² 2,5 km/h (1 Bft) O 90 ° -10,8 °C -6,2 °C
04.03.2018 06:01 24,0 °C -6,1 °C 36 % 70 % 1002,7 hPa 0,0 l/m² 11,9 km/h (2 Bft) O 90 ° -10,7 °C -11,9 °C
04.03.2018 06:03 24,0 °C -6,1 °C 36 % 70 % 1002,6 hPa 0,0 l/m² 10,8 km/h (2 Bft) O 90 ° -10,7 °C -11,0 °C
04.03.2018 06:05 24,0 °C -6,1 °C 36 % 70 % 1002,6 hPa 0,0 l/m² 13,7 km/h (3 Bft) O 90 ° -10,7 °C -13,4 °C
04.03.2018 06:07 24,0 °C -6,1 °C 36 % 70 % 1002,5 hPa 0,0 l/m² 11,2 km/h (2 Bft) O 90 ° -10,7 °C -11,3 °C
04.03.2018 06:09 24,0 °C -6,1 °C 36 % 70 % 1002,7 hPa 0,0 l/m² 9,7 km/h (2 Bft) O 90 ° -10,7 °C -9,9 °C
04.03.2018 06:11 24,0 °C -6,0 °C 36 % 70 % 1002,6 hPa 0,0 l/m² 11,5 km/h (2 Bft) O 90 ° -10,6 °C -11,5 °C
04.03.2018 06:13 24,0 °C -6,0 °C 36 % 70 % 1002,6 hPa 0,0 l/m² 6,1 km/h (2 Bft) O 90 ° -10,6 °C -6,0 °C
04.03.2018 06:15 24,0 °C -5,9 °C 36 % 70 % 1002,7 hPa 0,0 l/m² 13,3 km/h (3 Bft) O-SO 112 ° -10,5 °C -12,9 °C
04.03.2018 06:17 24,0 °C -5,9 °C 36 % 70 % 1002,5 hPa 0,0 l/m² 9,7 km/h (2 Bft) O 90 ° -10,5 °C -9,7 °C
04.03.2018 06:19 23,9 °C -5,9 °C 36 % 70 % 1002,5 hPa 0,0 l/m² 5,0 km/h (1 Bft) O-NO 67 ° -10,5 °C -5,9 °C
04.03.2018 06:21 24,0 °C -5,9 °C 36 % 70 % 1002,6 hPa 0,0 l/m² 5,0 km/h (1 Bft) O-NO 67 ° -10,5 °C -5,9 °C
04.03.2018 06:23 24,0 °C -5,9 °C 36 % 70 % 1002,5 hPa 0,0 l/m² 9,4 km/h (2 Bft) O 90 ° -10,5 °C -9,4 °C
04.03.2018 06:25 24,0 °C -5,9 °C 36 % 70 % 1002,5 hPa 0,0 l/m² 6,5 km/h (2 Bft) O-SO 112 ° -10,5 °C -6,0 °C
04.03.2018 06:27 24,0 °C -5,9 °C 36 % 70 % 1002,6 hPa 0,0 l/m² 15,8 km/h (3 Bft) O-SO 112 ° -10,5 °C -14,7 °C
04.03.2018 06:29 24,0 °C -5,9 °C 36 % 70 % 1002,5 hPa 0,0 l/m² 7,9 km/h (2 Bft) O-NO 67 ° -10,5 °C -7,7 °C
04.03.2018 06:31 24,0 °C -5,9 °C 36 % 70 % 1002,5 hPa 0,0 l/m² 13,0 km/h (3 Bft) O 90 ° -10,5 °C -12,6 °C
04.03.2018 06:33 24,0 °C -5,9 °C 36 % 70 % 1002,4 hPa 0,0 l/m² 7,6 km/h (2 Bft) O-SO 112 ° -10,5 °C -7,4 °C
04.03.2018 06:35 23,9 °C -5,9 °C 36 % 70 % 1002,4 hPa 0,0 l/m² 7,6 km/h (2 Bft) O 90 ° -10,5 °C -7,4 °C
04.03.2018 06:37 23,9 °C -5,9 °C 36 % 70 % 1002,4 hPa 0,0 l/m² 13,7 km/h (3 Bft) O 90 ° -10,5 °C -13,2 °C
04.03.2018 06:39 23,9 °C -5,9 °C 36 % 70 % 1002,4 hPa 0,0 l/m² 11,5 km/h (2 Bft) O-SO 112 ° -10,5 °C -11,4 °C
04.03.2018 06:41 23,9 °C -5,9 °C 36 % 70 % 1002,5 hPa 0,0 l/m² 9,7 km/h (2 Bft) O-SO 112 ° -10,5 °C -9,7 °C
04.03.2018 06:43 23,9 °C -6,1 °C 36 % 70 % 1002,4 hPa 0,0 l/m² 17,6 km/h (3 Bft) O 90 ° -10,7 °C -16,1 °C
04.03.2018 06:45 24,0 °C -6,1 °C 36 % 70 % 1002,4 hPa 0,0 l/m² 7,6 km/h (2 Bft) O 90 ° -10,7 °C -7,6 °C
04.03.2018 06:47 23,9 °C -6,1 °C 36 % 70 % 1002,5 hPa 0,0 l/m² 11,9 km/h (2 Bft) O-SO 112 ° -10,7 °C -11,9 °C
04.03.2018 06:49 23,9 °C -6,1 °C 36 % 70 % 1002,4 hPa 0,0 l/m² 8,3 km/h (2 Bft) O-SO 112 ° -10,7 °C -8,4 °C
04.03.2018 06:51 23,9 °C -6,1 °C 36 % 70 % 1002,5 hPa 0,0 l/m² 8,3 km/h (2 Bft) O-SO 112 ° -10,7 °C -8,4 °C
04.03.2018 06:53 23,9 °C -6,1 °C 36 % 70 % 1002,5 hPa 0,0 l/m² 7,6 km/h (2 Bft) O-SO 112 ° -10,7 °C -7,6 °C
04.03.2018 06:55 23,9 °C -6,1 °C 36 % 70 % 1002,4 hPa 0,0 l/m² 6,5 km/h (2 Bft) O-NO 67 ° -10,7 °C -6,2 °C
04.03.2018 06:57 23,9 °C -6,1 °C 36 % 70 % 1002,5 hPa 0,0 l/m² 12,6 km/h (3 Bft) O-SO 112 ° -10,7 °C -12,5 °C
04.03.2018 06:59 23,9 °C -6,1 °C 36 % 70 % 1002,5 hPa 0,0 l/m² 8,3 km/h (2 Bft) O-SO 112 ° -10,7 °C -8,4 °C
04.03.2018 07:01 23,9 °C -6,1 °C 36 % 70 % 1002,5 hPa 0,0 l/m² 12,2 km/h (2 Bft) O 90 ° -10,7 °C -12,2 °C
04.03.2018 07:03 23,9 °C -6,1 °C 36 % 70 % 1002,5 hPa 0,0 l/m² 8,6 km/h (2 Bft) O-SO 112 ° -10,7 °C -8,7 °C
04.03.2018 07:05 23,9 °C -6,1 °C 36 % 70 % 1002,5 hPa 0,0 l/m² 6,8 km/h (2 Bft) O 90 ° -10,7 °C -6,6 °C
04.03.2018 07:07 23,9 °C -6,1 °C 36 % 70 % 1002,7 hPa 0,0 l/m² 7,6 km/h (2 Bft) O 90 ° -10,7 °C -7,6 °C
04.03.2018 07:09 23,9 °C -6,1 °C 36 % 70 % 1002,7 hPa 0,0 l/m² 7,6 km/h (2 Bft) O-SO 112 ° -10,7 °C -7,6 °C
04.03.2018 07:11 23,9 °C -6,1 °C 36 % 70 % 1002,7 hPa 0,0 l/m² 7,9 km/h (2 Bft) O-SO 112 ° -10,7 °C -7,9 °C
04.03.2018 07:13 24,0 °C -6,1 °C 36 % 71 % 1002,7 hPa 0,0 l/m² 10,8 km/h (2 Bft) O-SO 112 ° -10,5 °C -11,0 °C
04.03.2018 07:15 23,9 °C -6,1 °C 36 % 71 % 1002,6 hPa 0,0 l/m² 8,6 km/h (2 Bft) O 90 ° -10,5 °C -8,7 °C
04.03.2018 07:17 24,0 °C -6,1 °C 36 % 71 % 1002,6 hPa 0,0 l/m² 8,3 km/h (2 Bft) O 90 ° -10,5 °C -8,4 °C
04.03.2018 07:19 23,9 °C -6,1 °C 36 % 71 % 1002,7 hPa 0,0 l/m² 9,0 km/h (2 Bft) O 90 ° -10,5 °C -9,2 °C
04.03.2018 07:21 24,0 °C -6,1 °C 36 % 71 % 1002,6 hPa 0,0 l/m² 9,0 km/h (2 Bft) O 90 ° -10,5 °C -9,2 °C
04.03.2018 07:23 24,0 °C -6,1 °C 36 % 71 % 1002,7 hPa 0,0 l/m² 6,1 km/h (2 Bft) O-SO 112 ° -10,5 °C -6,1 °C
04.03.2018 07:25 24,0 °C -6,1 °C 36 % 71 % 1002,6 hPa 0,0 l/m² 6,1 km/h (2 Bft) O 90 ° -10,5 °C -6,1 °C
04.03.2018 07:27 24,0 °C -6,0 °C 36 % 71 % 1002,6 hPa 0,0 l/m² 4,0 km/h (1 Bft) O 90 ° -10,4 °C -6,0 °C
04.03.2018 07:29 24,0 °C -5,9 °C 36 % 71 % 1002,6 hPa 0,0 l/m² 7,2 km/h (2 Bft) O-SO 112 ° -10,3 °C -6,9 °C
04.03.2018 07:31 24,0 °C -5,9 °C 36 % 71 % 1002,6 hPa 0,0 l/m² 8,3 km/h (2 Bft) O 90 ° -10,3 °C -8,2 °C
04.03.2018 07:33 24,0 °C -5,9 °C 36 % 71 % 1002,6 hPa 0,0 l/m² 6,8 km/h (2 Bft) O 90 ° -10,3 °C -6,4 °C
04.03.2018 07:35 24,0 °C -5,9 °C 36 % 71 % 1002,5 hPa 0,0 l/m² 6,1 km/h (2 Bft) O-NO 67 ° -10,3 °C -5,9 °C
04.03.2018 07:37 24,0 °C -5,9 °C 36 % 71 % 1002,5 hPa 0,0 l/m² 7,6 km/h (2 Bft) O-NO 67 ° -10,3 °C -7,4 °C
04.03.2018 07:39 24,0 °C -5,8 °C 36 % 71 % 1002,6 hPa 0,0 l/m² 7,2 km/h (2 Bft) O 90 ° -10,2 °C -6,8 °C
04.03.2018 07:41 24,0 °C -5,8 °C 36 % 71 % 1002,5 hPa 0,0 l/m² 11,2 km/h (2 Bft) O-SO 112 ° -10,2 °C -11,0 °C
04.03.2018 07:43 24,0 °C -5,7 °C 36 % 71 % 1002,5 hPa 0,0 l/m² 11,2 km/h (2 Bft) O 90 ° -10,1 °C -10,9 °C
04.03.2018 07:45 24,0 °C -5,7 °C 36 % 71 % 1002,5 hPa 0,0 l/m² 9,4 km/h (2 Bft) O 90 ° -10,1 °C -9,1 °C
04.03.2018 07:47 24,0 °C -5,6 °C 36 % 71 % 1002,5 hPa 0,0 l/m² 9,7 km/h (2 Bft) O-SO 112 ° -10,0 °C -9,3 °C
04.03.2018 07:49 24,0 °C -5,6 °C 36 % 71 % 1002,5 hPa 0,0 l/m² 13,7 km/h (3 Bft) O 90 ° -10,0 °C -12,8 °C
04.03.2018 07:51 24,0 °C -5,6 °C 36 % 71 % 1002,5 hPa 0,0 l/m² 13,7 km/h (3 Bft) O 90 ° -10,0 °C -12,8 °C
04.03.2018 07:53 24,0 °C -5,6 °C 36 % 71 % 1002,4 hPa 0,0 l/m² 6,8 km/h (2 Bft) O-SO 112 ° -10,0 °C -6,1 °C
04.03.2018 07:55 24,0 °C -5,5 °C 36 % 71 % 1002,6 hPa 0,0 l/m² 9,4 km/h (2 Bft) O-SO 112 ° -9,9 °C -8,9 °C
04.03.2018 07:57 24,0 °C -5,4 °C 36 % 71 % 1002,6 hPa 0,0 l/m² 9,0 km/h (2 Bft) O 90 ° -9,8 °C -8,4 °C
04.03.2018 07:59 24,0 °C -5,4 °C 36 % 71 % 1002,4 hPa 0,0 l/m² 9,4 km/h (2 Bft) O 90 ° -9,8 °C -8,8 °C
04.03.2018 08:01 24,0 °C -5,2 °C 36 % 71 % 1002,4 hPa 0,0 l/m² 13,3 km/h (3 Bft) O 90 ° -9,6 °C -12,0 °C
04.03.2018 08:03 24,0 °C -5,2 °C 36 % 71 % 1002,4 hPa 0,0 l/m² 11,9 km/h (2 Bft) O 90 ° -9,6 °C -10,9 °C
04.03.2018 08:05 24,0 °C -5,1 °C 36 % 71 % 1002,4 hPa 0,0 l/m² 10,4 km/h (2 Bft) O-SO 112 ° -9,5 °C -9,5 °C
04.03.2018 08:07 24,0 °C -5,1 °C 36 % 71 % 1002,4 hPa 0,0 l/m² 13,0 km/h (3 Bft) O 90 ° -9,5 °C -11,7 °C
04.03.2018 08:09 24,0 °C -5,0 °C 36 % 71 % 1002,4 hPa 0,0 l/m² 9,0 km/h (2 Bft) O 90 ° -9,4 °C -8,0 °C
04.03.2018 08:11 24,0 °C -4,9 °C 36 % 71 % 1002,4 hPa 0,0 l/m² 13,7 km/h (3 Bft) O-SO 112 ° -9,3 °C -12,0 °C
04.03.2018 08:13 24,0 °C -4,8 °C 36 % 71 % 1002,3 hPa 0,0 l/m² 13,0 km/h (3 Bft) O-SO 112 ° -9,2 °C -11,3 °C
04.03.2018 08:15 24,0 °C -4,7 °C 36 % 71 % 1002,2 hPa 0,0 l/m² 7,6 km/h (2 Bft) O 90 ° -9,1 °C -6,1 °C
04.03.2018 08:17 24,0 °C -4,7 °C 36 % 71 % 1002,4 hPa 0,0 l/m² 9,7 km/h (2 Bft) O-SO 112 ° -9,1 °C -8,4 °C
04.03.2018 08:19 24,0 °C -4,6 °C 36 % 71 % 1002,4 hPa 0,0 l/m² 9,0 km/h (2 Bft) O 90 ° -9,0 °C -7,5 °C
04.03.2018 08:21 24,0 °C -4,5 °C 36 % 71 % 1002,4 hPa 0,0 l/m² 9,0 km/h (2 Bft) O 90 ° -8,9 °C -7,4 °C
04.03.2018 08:23 24,0 °C -4,5 °C 36 % 71 % 1002,4 hPa 0,0 l/m² 8,6 km/h (2 Bft) O 90 ° -8,9 °C -7,0 °C
04.03.2018 08:25 24,0 °C -4,5 °C 36 % 70 % 1002,3 hPa 0,0 l/m² 7,2 km/h (2 Bft) O-NO 67 ° -9,1 °C -5,4 °C
04.03.2018 08:27 24,0 °C -4,4 °C 36 % 70 % 1002,4 hPa 0,0 l/m² 11,9 km/h (2 Bft) O-SO 112 ° -9,0 °C -10,0 °C
04.03.2018 08:29 24,0 °C -4,3 °C 36 % 70 % 1002,3 hPa 0,0 l/m² 13,3 km/h (3 Bft) O 90 ° -8,9 °C -11,0 °C
04.03.2018 08:31 24,0 °C -4,2 °C 36 % 70 % 1002,4 hPa 0,0 l/m² 11,5 km/h (2 Bft) O-SO 112 ° -8,8 °C -9,4 °C
04.03.2018 08:33 24,0 °C -4,1 °C 36 % 70 % 1002,3 hPa 0,0 l/m² 10,1 km/h (2 Bft) O-SO 112 ° -8,7 °C -8,1 °C
04.03.2018 08:35 24,0 °C -4,1 °C 36 % 70 % 1002,5 hPa 0,0 l/m² 11,2 km/h (2 Bft) O 90 ° -8,7 °C -9,1 °C
04.03.2018 08:37 24,0 °C -3,9 °C 36 % 70 % 1002,5 hPa 0,0 l/m² 10,1 km/h (2 Bft) O-SO 112 ° -8,5 °C -7,9 °C
04.03.2018 08:39 24,0 °C -3,9 °C 36 % 70 % 1002,4 hPa 0,0 l/m² 13,3 km/h (3 Bft) O-SO 112 ° -8,5 °C -10,5 °C
04.03.2018 08:41 24,0 °C -3,8 °C 36 % 70 % 1002,6 hPa 0,0 l/m² 14,8 km/h (3 Bft) O-SO 112 ° -8,4 °C -11,4 °C
04.03.2018 08:43 24,0 °C -3,7 °C 36 % 69 % 1002,5 hPa 0,0 l/m² 11,5 km/h (2 Bft) O 90 ° -8,5 °C -8,9 °C
04.03.2018 08:45 24,0 °C -3,7 °C 36 % 69 % 1002,5 hPa 0,0 l/m² 7,6 km/h (2 Bft) O-SO 112 ° -8,5 °C -5,1 °C
04.03.2018 08:47 24,0 °C -3,6 °C 36 % 69 % 1002,4 hPa 0,0 l/m² 13,7 km/h (3 Bft) O-SO 112 ° -8,4 °C -10,4 °C
04.03.2018 08:49 24,0 °C -3,6 °C 37 % 69 % 1002,3 hPa 0,0 l/m² 11,9 km/h (2 Bft) O-SO 112 ° -8,4 °C -9,1 °C
04.03.2018 08:51 24,0 °C -3,6 °C 37 % 69 % 1002,3 hPa 0,0 l/m² 15,8 km/h (3 Bft) O-SO 112 ° -8,4 °C -11,9 °C
04.03.2018 08:53 24,0 °C -3,6 °C 37 % 69 % 1002,4 hPa 0,0 l/m² 15,8 km/h (3 Bft) O-SO 112 ° -8,4 °C -11,9 °C
04.03.2018 08:55 24,0 °C -3,4 °C 37 % 69 % 1002,3 hPa 0,0 l/m² 10,8 km/h (2 Bft) O-SO 112 ° -8,2 °C -7,9 °C
04.03.2018 08:57 24,0 °C -3,4 °C 37 % 68 % 1002,3 hPa 0,0 l/m² 13,3 km/h (3 Bft) O-SO 112 ° -8,4 °C -9,9 °C
04.03.2018 08:59 24,1 °C -3,2 °C 37 % 68 % 1002,3 hPa 0,0 l/m² 12,6 km/h (3 Bft) O-SO 112 ° -8,2 °C -9,2 °C
04.03.2018 09:01 24,1 °C -3,2 °C 37 % 68 % 1002,3 hPa 0,0 l/m² 10,4 km/h (2 Bft) O-SO 112 ° -8,2 °C -7,3 °C
04.03.2018 09:03 24,1 °C -3,2 °C 37 % 68 % 1002,2 hPa 0,0 l/m² 7,9 km/h (2 Bft) O-SO 112 ° -8,2 °C -4,9 °C
04.03.2018 09:05 24,1 °C -3,1 °C 37 % 68 % 1002,3 hPa 0,0 l/m² 13,3 km/h (3 Bft) O-SO 112 ° -8,1 °C -9,6 °C
04.03.2018 09:07 24,1 °C -2,9 °C 37 % 68 % 1002,4 hPa 0,0 l/m² 13,7 km/h (3 Bft) O-SO 112 ° -8,0 °C -9,6 °C
04.03.2018 09:09 24,1 °C -2,9 °C 37 % 68 % 1002,3 hPa 0,0 l/m² 13,0 km/h (3 Bft) O-SO 112 ° -8,0 °C -9,1 °C
04.03.2018 09:11 24,1 °C -2,8 °C 37 % 68 % 1002,2 hPa 0,0 l/m² 7,6 km/h (2 Bft) O-SO 112 ° -7,9 °C -4,2 °C
04.03.2018 09:13 24,1 °C -2,7 °C 37 % 67 % 1002,2 hPa 0,0 l/m² 9,4 km/h (2 Bft) O-SO 112 ° -8,0 °C -5,9 °C
04.03.2018 09:15 24,1 °C -2,6 °C 37 % 67 % 1002,1 hPa 0,0 l/m² 6,8 km/h (2 Bft) O 90 ° -7,9 °C -3,0 °C
04.03.2018 09:17 24,1 °C -2,5 °C 37 % 67 % 1002,1 hPa 0,0 l/m² 13,0 km/h (3 Bft) O 90 ° -7,8 °C -8,6 °C
04.03.2018 09:19 24,1 °C -2,4 °C 37 % 67 % 1002,0 hPa 0,0 l/m² 12,6 km/h (3 Bft) O 90 ° -7,7 °C -8,2 °C
04.03.2018 09:21 24,2 °C -2,1 °C 37 % 67 % 1002,0 hPa 0,0 l/m² 9,4 km/h (2 Bft) O-SO 112 ° -7,4 °C -5,2 °C
04.03.2018 09:23 24,2 °C -2,1 °C 37 % 67 % 1002,1 hPa 0,0 l/m² 9,4 km/h (2 Bft) O-SO 112 ° -7,4 °C -5,2 °C
04.03.2018 09:25 24,2 °C -2,0 °C 37 % 67 % 1002,1 hPa 0,0 l/m² 13,3 km/h (3 Bft) O-SO 112 ° -7,3 °C -8,3 °C
04.03.2018 09:27 24,2 °C -1,8 °C 37 % 67 % 1002,1 hPa 0,0 l/m² 10,4 km/h (2 Bft) O 90 ° -7,1 °C -5,8 °C
04.03.2018 09:29 24,2 °C -1,6 °C 37 % 66 % 1002,0 hPa 0,0 l/m² 8,6 km/h (2 Bft) O-SO 112 ° -7,1 °C -3,9 °C
04.03.2018 09:31 24,2 °C -1,5 °C 37 % 66 % 1002,0 hPa 0,0 l/m² 10,1 km/h (2 Bft) O-SO 112 ° -7,0 °C -5,2 °C
04.03.2018 09:33 24,2 °C -1,4 °C 37 % 66 % 1002,0 hPa 0,0 l/m² 14,4 km/h (3 Bft) O-SO 112 ° -6,9 °C -8,3 °C
04.03.2018 09:35 24,2 °C -1,2 °C 37 % 66 % 1001,9 hPa 0,0 l/m² 7,2 km/h (2 Bft) O 90 ° -6,7 °C -2,1 °C
04.03.2018 09:37 24,2 °C -1,1 °C 37 % 65 % 1002,0 hPa 0,0 l/m² 11,9 km/h (2 Bft) O-SO 112 ° -6,8 °C -6,2 °C
04.03.2018 09:39 24,2 °C -1,1 °C 37 % 65 % 1002,0 hPa 0,0 l/m² 13,3 km/h (3 Bft) O-SO 112 ° -6,8 °C -7,2 °C
04.03.2018 09:41 24,2 °C -1,0 °C 37 % 65 % 1002,0 hPa 0,0 l/m² 15,5 km/h (3 Bft) O-SO 112 ° -6,7 °C -8,5 °C
04.03.2018 09:43 24,2 °C -1,0 °C 37 % 65 % 1002,0 hPa 0,0 l/m² 8,6 km/h (2 Bft) O 90 ° -6,7 °C -3,3 °C
04.03.2018 09:45 24,2 °C -0,9 °C 37 % 64 % 1001,9 hPa 0,0 l/m² 9,0 km/h (2 Bft) O 90 ° -6,8 °C -3,6 °C
04.03.2018 09:47 24,2 °C -0,8 °C 37 % 64 % 1001,9 hPa 0,0 l/m² 10,8 km/h (2 Bft) O 90 ° -6,7 °C -5,0 °C
04.03.2018 09:49 24,2 °C -0,7 °C 37 % 64 % 1001,9 hPa 0,0 l/m² 10,8 km/h (2 Bft) O 90 ° -6,6 °C -4,9 °C
04.03.2018 09:51 24,2 °C -0,7 °C 37 % 64 % 1001,8 hPa 0,0 l/m² 10,1 km/h (2 Bft) O-SO 112 ° -6,6 °C -4,3 °C
04.03.2018 09:53 24,2 °C -0,7 °C 37 % 64 % 1001,9 hPa 0,0 l/m² 10,1 km/h (2 Bft) O-SO 112 ° -6,6 °C -4,3 °C
04.03.2018 09:55 24,2 °C -0,7 °C 36 % 64 % 1001,9 hPa 0,0 l/m² 7,9 km/h (2 Bft) O-SO 112 ° -6,6 °C -2,3 °C
04.03.2018 09:57 24,2 °C -0,6 °C 35 % 64 % 1001,9 hPa 0,0 l/m² 13,0 km/h (3 Bft) O 90 ° -6,5 °C -6,4 °C
04.03.2018 09:59 24,2 °C -0,5 °C 35 % 64 % 1001,9 hPa 0,0 l/m² 8,6 km/h (2 Bft) O-SO 112 ° -6,5 °C -2,8 °C
04.03.2018 10:01 24,1 °C -0,5 °C 34 % 64 % 1001,9 hPa 0,0 l/m² 8,3 km/h (2 Bft) O 90 ° -6,5 °C -2,5 °C
04.03.2018 10:03 24,1 °C -0,4 °C 34 % 64 % 1001,8 hPa 0,0 l/m² 10,8 km/h (2 Bft) O 90 ° -6,4 °C -4,5 °C
04.03.2018 10:05 24,1 °C -0,2 °C 33 % 63 % 1001,8 hPa 0,0 l/m² 13,3 km/h (3 Bft) O-SO 112 ° -6,4 °C -6,1 °C
04.03.2018 10:07 24,1 °C -0,2 °C 33 % 63 % 1001,8 hPa 0,0 l/m² 13,7 km/h (3 Bft) O 90 ° -6,4 °C -6,4 °C
04.03.2018 10:09 24,0 °C -0,2 °C 34 % 63 % 1001,7 hPa 0,0 l/m² 16,6 km/h (3 Bft) O 90 ° -6,4 °C -8,2 °C
04.03.2018 10:11 24,0 °C -0,1 °C 34 % 63 % 1001,9 hPa 0,0 l/m² 7,9 km/h (2 Bft) O-NO 67 ° -6,3 °C -1,7 °C
04.03.2018 10:13 24,0 °C -0,1 °C 35 % 63 % 1001,9 hPa 0,0 l/m² 9,7 km/h (2 Bft) O-SO 112 ° -6,3 °C -3,3 °C
04.03.2018 10:15 24,0 °C -0,1 °C 35 % 62 % 1001,8 hPa 0,0 l/m² 7,2 km/h (2 Bft) O-SO 112 ° -6,5 °C -0,9 °C
04.03.2018 10:17 24,0 °C 0,1 °C 35 % 62 % 1002,0 hPa 0,0 l/m² 12,2 km/h (2 Bft) O-SO 112 ° -6,3 °C -5,0 °C
04.03.2018 10:19 24,0 °C 0,1 °C 35 % 62 % 1002,0 hPa 0,0 l/m² 8,6 km/h (2 Bft) O-SO 112 ° -6,3 °C -2,1 °C
04.03.2018 10:21 24,0 °C 0,2 °C 35 % 62 % 1001,8 hPa 0,0 l/m² 9,7 km/h (2 Bft) O 90 ° -6,2 °C -3,0 °C
04.03.2018 10:23 24,0 °C 0,2 °C 35 % 62 % 1001,8 hPa 0,0 l/m² 9,7 km/h (2 Bft) O 90 ° -6,2 °C -3,0 °C
04.03.2018 10:25 24,0 °C 0,3 °C 35 % 62 % 1001,9 hPa 0,0 l/m² 10,4 km/h (2 Bft) O-SO 112 ° -6,1 °C -3,4 °C
04.03.2018 10:27 24,0 °C 0,4 °C 35 % 62 % 1001,8 hPa 0,0 l/m² 13,3 km/h (3 Bft) O 90 ° -6,0 °C -5,4 °C
04.03.2018 10:29 24,0 °C 0,4 °C 35 % 62 % 1001,8 hPa 0,0 l/m² 13,0 km/h (3 Bft) O 90 ° -6,0 °C -5,2 °C
04.03.2018 10:31 24,0 °C 0,5 °C 36 % 62 % 1001,7 hPa 0,0 l/m² 13,0 km/h (3 Bft) O-SO 112 ° -5,9 °C -5,1 °C
04.03.2018 10:33 24,0 °C 0,6 °C 36 % 62 % 1001,8 hPa 0,0 l/m² 10,4 km/h (2 Bft) O 90 ° -5,8 °C -3,1 °C
04.03.2018 10:35 24,0 °C 0,6 °C 36 % 62 % 1001,8 hPa 0,0 l/m² 4,0 km/h (1 Bft) O 90 ° -5,8 °C 0,6 °C
04.03.2018 10:37 24,0 °C 0,8 °C 35 % 62 % 1001,8 hPa 0,0 l/m² 13,7 km/h (3 Bft) O-SO 112 ° -5,6 °C -5,2 °C
04.03.2018 10:39 24,0 °C 0,9 °C 36 % 62 % 1001,8 hPa 0,0 l/m² 12,2 km/h (2 Bft) O-SO 112 ° -5,5 °C -4,1 °C
04.03.2018 10:41 24,0 °C 0,9 °C 36 % 61 % 1001,8 hPa 0,0 l/m² 8,6 km/h (2 Bft) O-SO 112 ° -5,8 °C -1,3 °C
04.03.2018 10:43 24,0 °C 0,9 °C 36 % 61 % 1001,7 hPa 0,0 l/m² 14,4 km/h (3 Bft) O 90 ° -5,8 °C -5,5 °C
04.03.2018 10:45 24,0 °C 1,1 °C 36 % 61 % 1001,7 hPa 0,0 l/m² 13,0 km/h (3 Bft) O-SO 112 ° -5,6 °C -4,4 °C
04.03.2018 10:47 24,0 °C 1,3 °C 36 % 61 % 1001,7 hPa 0,0 l/m² 10,4 km/h (2 Bft) O 90 ° -5,4 °C -2,3 °C
04.03.2018 10:49 24,0 °C 1,4 °C 36 % 62 % 1001,7 hPa 0,0 l/m² 9,7 km/h (2 Bft) O-SO 112 ° -5,1 °C -1,7 °C
04.03.2018 10:51 24,0 °C 1,6 °C 36 % 62 % 1001,7 hPa 0,0 l/m² 12,6 km/h (3 Bft) O-SO 112 ° -4,9 °C -3,6 °C
04.03.2018 10:53 24,0 °C 1,6 °C 36 % 62 % 1001,7 hPa 0,0 l/m² 12,6 km/h (3 Bft) O-SO 112 ° -4,9 °C -3,6 °C
04.03.2018 10:55 24,0 °C 1,8 °C 36 % 62 % 1001,7 hPa 0,0 l/m² 19,1 km/h (3 Bft) S-SO 157 ° -4,7 °C -6,9 °C
04.03.2018 10:57 24,0 °C 1,8 °C 36 % 62 % 1001,7 hPa 0,0 l/m² 16,9 km/h (3 Bft) SO 135 ° -4,7 °C -5,8 °C
04.03.2018 10:59 24,0 °C 1,9 °C 36 % 62 % 1001,7 hPa 0,0 l/m² 13,0 km/h (3 Bft) SO 135 ° -4,6 °C -3,5 °C
04.03.2018 11:01 24,0 °C 1,9 °C 36 % 62 % 1001,7 hPa 0,0 l/m² 4,7 km/h (1 Bft) O-SO 112 ° -4,6 °C 1,9 °C
04.03.2018 11:03 24,0 °C 2,1 °C 36 % 62 % 1001,7 hPa 0,0 l/m² 11,9 km/h (2 Bft) O-SO 112 ° -4,4 °C -2,5 °C
04.03.2018 11:05 24,0 °C 2,2 °C 36 % 62 % 1001,7 hPa 0,0 l/m² 15,8 km/h (3 Bft) SO 135 ° -4,3 °C -4,8 °C
04.03.2018 11:07 24,0 °C 2,3 °C 36 % 62 % 1001,7 hPa 0,0 l/m² 12,2 km/h (2 Bft) O-SO 112 ° -4,2 °C -2,5 °C
04.03.2018 11:09 24,0 °C 2,4 °C 36 % 62 % 1001,6 hPa 0,0 l/m² 15,1 km/h (3 Bft) SO 135 ° -4,1 °C -4,1 °C
04.03.2018 11:11 24,0 °C 2,4 °C 36 % 61 % 1001,7 hPa 0,0 l/m² 14,4 km/h (3 Bft) SO 135 ° -4,3 °C -3,7 °C
04.03.2018 11:13 24,0 °C 2,5 °C 36 % 61 % 1001,6 hPa 0,0 l/m² 13,7 km/h (3 Bft) O-SO 112 ° -4,2 °C -3,2 °C
04.03.2018 11:15 24,0 °C 2,6 °C 36 % 62 % 1001,6 hPa 0,0 l/m² 13,0 km/h (3 Bft) O-SO 112 ° -3,9 °C -2,7 °C
04.03.2018 11:17 24,0 °C 2,6 °C 36 % 62 % 1001,6 hPa 0,0 l/m² 20,2 km/h (4 Bft) SO 135 ° -3,9 °C -6,4 °C
04.03.2018 11:19 24,1 °C 2,7 °C 36 % 62 % 1001,6 hPa 0,0 l/m² 13,7 km/h (3 Bft) SO 135 ° -3,8 °C -3,0 °C
04.03.2018 11:21 24,1 °C 2,7 °C 36 % 62 % 1001,6 hPa 0,0 l/m² 13,0 km/h (3 Bft) S-SO 157 ° -3,8 °C -2,5 °C
04.03.2018 11:23 24,1 °C 2,7 °C 36 % 62 % 1001,6 hPa 0,0 l/m² 13,0 km/h (3 Bft) S-SO 157 ° -3,8 °C -2,5 °C
04.03.2018 11:25 24,1 °C 2,8 °C 36 % 62 % 1001,7 hPa 0,0 l/m² 15,1 km/h (3 Bft) S-SO 157 ° -3,7 °C -3,6 °C
04.03.2018 11:27 24,1 °C 2,9 °C 36 % 62 % 1001,6 hPa 0,0 l/m² 16,2 km/h (3 Bft) S-SO 157 ° -3,6 °C -4,1 °C
04.03.2018 11:29 24,1 °C 2,9 °C 36 % 62 % 1001,6 hPa 0,0 l/m² 19,8 km/h (3 Bft) SO 135 ° -3,6 °C -5,8 °C
04.03.2018 11:31 24,1 °C 3,0 °C 36 % 62 % 1001,5 hPa 0,0 l/m² 16,9 km/h (3 Bft) SO 135 ° -3,6 °C -4,3 °C
04.03.2018 11:33 24,1 °C 3,1 °C 36 % 62 % 1001,6 hPa 0,0 l/m² 14,4 km/h (3 Bft) SO 135 ° -3,5 °C -2,9 °C
04.03.2018 11:35 24,1 °C 3,2 °C 36 % 62 % 1001,6 hPa 0,0 l/m² 14,4 km/h (3 Bft) S-SO 157 ° -3,4 °C -2,8 °C
04.03.2018 11:37 24,1 °C 3,3 °C 36 % 62 % 1001,6 hPa 0,0 l/m² 11,9 km/h (2 Bft) S-SO 157 ° -3,3 °C -1,1 °C
04.03.2018 11:39 24,1 °C 3,3 °C 36 % 62 % 1001,5 hPa 0,0 l/m² 17,6 km/h (3 Bft) SO 135 ° -3,3 °C -4,3 °C
04.03.2018 11:41 24,1 °C 3,4 °C 36 % 62 % 1001,4 hPa 0,0 l/m² 13,7 km/h (3 Bft) SO 135 ° -3,2 °C -2,1 °C
04.03.2018 11:43 24,1 °C 3,5 °C 37 % 62 % 1001,4 hPa 0,0 l/m² 19,1 km/h (3 Bft) SO 135 ° -3,1 °C -4,7 °C
04.03.2018 11:45 24,1 °C 3,6 °C 36 % 62 % 1001,3 hPa 0,0 l/m² 16,2 km/h (3 Bft) O-SO 112 ° -3,0 °C -3,2 °C
04.03.2018 11:47 24,1 °C 3,6 °C 36 % 62 % 1001,2 hPa 0,0 l/m² 18,4 km/h (3 Bft) S-SO 157 ° -3,0 °C -4,3 °C
04.03.2018 11:49 24,1 °C 3,8 °C 37 % 61 % 1001,1 hPa 0,0 l/m² 16,6 km/h (3 Bft) SO 135 ° -3,0 °C -3,2 °C
04.03.2018 11:51 24,2 °C 3,8 °C 36 % 61 % 1001,3 hPa 0,0 l/m² 10,4 km/h (2 Bft) S-SO 157 ° -3,0 °C 0,5 °C
04.03.2018 11:53 24,2 °C 3,8 °C 37 % 61 % 1001,3 hPa 0,0 l/m² 10,4 km/h (2 Bft) S-SO 157 ° -3,0 °C 0,5 °C
04.03.2018 11:55 24,2 °C 3,8 °C 37 % 61 % 1001,3 hPa 0,0 l/m² 12,2 km/h (2 Bft) SO 135 ° -3,0 °C -0,8 °C
04.03.2018 11:57 24,2 °C 3,9 °C 36 % 61 % 1001,2 hPa 0,0 l/m² 10,4 km/h (2 Bft) S-SO 157 ° -2,9 °C 0,6 °C
04.03.2018 11:59 24,2 °C 4,2 °C 36 % 61 % 1001,0 hPa 0,0 l/m² 20,9 km/h (4 Bft) O-SO 112 ° -2,6 °C -4,6 °C
04.03.2018 12:01 24,2 °C 4,4 °C 36 % 61 % 1001,0 hPa 0,0 l/m² 18,0 km/h (3 Bft) SO 135 ° -2,4 °C -3,1 °C
04.03.2018 12:03 24,2 °C 4,5 °C 36 % 60 % 1001,0 hPa 0,0 l/m² 16,6 km/h (3 Bft) SO 135 ° -2,6 °C -2,3 °C
04.03.2018 12:05 24,2 °C 4,6 °C 36 % 60 % 1001,1 hPa 0,0 l/m² 7,9 km/h (2 Bft) SO 135 ° -2,5 °C 3,3 °C
04.03.2018 12:07 24,2 °C 4,7 °C 36 % 60 % 1001,1 hPa 0,0 l/m² 23,4 km/h (4 Bft) O 90 ° -2,4 °C -4,8 °C
04.03.2018 12:09 24,2 °C 4,8 °C 36 % 60 % 1001,1 hPa 0,0 l/m² 14,4 km/h (3 Bft) S-SO 157 ° -2,3 °C -0,9 °C
04.03.2018 12:11 24,3 °C 4,8 °C 36 % 60 % 1001,0 hPa 0,0 l/m² 14,8 km/h (3 Bft) O-SO 112 ° -2,3 °C -1,1 °C
04.03.2018 12:13 24,3 °C 4,9 °C 36 % 60 % 1001,1 hPa 0,0 l/m² 14,8 km/h (3 Bft) SO 135 ° -2,2 °C -0,9 °C
04.03.2018 12:15 24,3 °C 4,8 °C 36 % 59 % 1001,1 hPa 0,0 l/m² 18,7 km/h (3 Bft) O-SO 112 ° -2,5 °C -2,9 °C
04.03.2018 12:17 24,3 °C 4,9 °C 36 % 60 % 1001,1 hPa 0,0 l/m² 15,1 km/h (3 Bft) O-SO 112 ° -2,2 °C -1,1 °C
04.03.2018 12:19 24,3 °C 4,9 °C 36 % 60 % 1001,2 hPa 0,0 l/m² 17,3 km/h (3 Bft) SO 135 ° -2,2 °C -2,2 °C
04.03.2018 12:21 24,3 °C 5,0 °C 36 % 60 % 1001,1 hPa 0,0 l/m² 13,0 km/h (3 Bft) S-SO 157 ° -2,1 °C 0,2 °C
04.03.2018 12:23 24,3 °C 5,0 °C 36 % 60 % 1001,1 hPa 0,0 l/m² 13,0 km/h (3 Bft) S-SO 157 ° -2,1 °C 0,2 °C
04.03.2018 12:25 24,3 °C 5,2 °C 36 % 60 % 1001,0 hPa 0,0 l/m² 16,2 km/h (3 Bft) SO 135 ° -1,9 °C -1,3 °C
04.03.2018 12:27 24,4 °C 5,3 °C 36 % 59 % 1001,0 hPa 0,0 l/m² 15,5 km/h (3 Bft) SO 135 ° -2,0 °C -0,8 °C
04.03.2018 12:29 24,3 °C 5,3 °C 36 % 59 % 1000,9 hPa 0,0 l/m² 14,4 km/h (3 Bft) SO 135 ° -2,0 °C -0,3 °C
04.03.2018 12:31 24,4 °C 5,3 °C 37 % 59 % 1001,0 hPa 0,0 l/m² 15,5 km/h (3 Bft) SO 135 ° -2,0 °C -0,8 °C
04.03.2018 12:33 24,4 °C 5,3 °C 37 % 59 % 1001,0 hPa 0,0 l/m² 21,2 km/h (4 Bft) O-SO 112 ° -2,0 °C -3,2 °C
04.03.2018 12:35 24,4 °C 5,2 °C 38 % 59 % 1000,9 hPa 0,0 l/m² 11,9 km/h (2 Bft) SO 135 ° -2,1 °C 1,0 °C
04.03.2018 12:37 24,4 °C 5,1 °C 38 % 59 % 1000,8 hPa 0,0 l/m² 16,9 km/h (3 Bft) O-SO 112 ° -2,2 °C -1,7 °C
04.03.2018 12:39 24,4 °C 5,2 °C 38 % 59 % 1000,9 hPa 0,0 l/m² 11,5 km/h (2 Bft) SO 135 ° -2,1 °C 1,3 °C
04.03.2018 12:41 24,4 °C 5,2 °C 38 % 59 % 1000,8 hPa 0,0 l/m² 22,7 km/h (4 Bft) SO 135 ° -2,1 °C -3,9 °C
04.03.2018 12:43 24,4 °C 5,3 °C 38 % 59 % 1000,8 hPa 0,0 l/m² 10,4 km/h (2 Bft) S-SO 157 ° -2,0 °C 2,1 °C
04.03.2018 12:45 24,4 °C 5,3 °C 38 % 59 % 1000,9 hPa 0,0 l/m² 10,8 km/h (2 Bft) SO 135 ° -2,0 °C 1,9 °C
04.03.2018 12:47 24,4 °C 5,4 °C 38 % 59 % 1000,9 hPa 0,0 l/m² 14,8 km/h (3 Bft) SO 135 ° -2,0 °C -0,3 °C
04.03.2018 12:49 24,4 °C 5,5 °C 38 % 59 % 1000,8 hPa 0,0 l/m² 15,1 km/h (3 Bft) S-SO 157 ° -1,9 °C -0,4 °C
04.03.2018 12:51 24,4 °C 5,6 °C 38 % 60 % 1000,9 hPa 0,0 l/m² 10,8 km/h (2 Bft) O-SO 112 ° -1,5 °C 2,2 °C
04.03.2018 12:53 24,4 °C 5,7 °C 38 % 60 % 1000,8 hPa 0,0 l/m² 10,8 km/h (2 Bft) O-SO 112 ° -1,4 °C 2,3 °C
04.03.2018 12:55 24,5 °C 5,7 °C 38 % 60 % 1000,8 hPa 0,0 l/m² 13,7 km/h (3 Bft) SO 135 ° -1,4 °C 0,6 °C
04.03.2018 12:57 24,4 °C 5,9 °C 39 % 60 % 1000,7 hPa 0,0 l/m² 10,8 km/h (2 Bft) SO 135 ° -1,3 °C 2,5 °C
04.03.2018 12:59 24,4 °C 6,1 °C 39 % 59 % 1000,7 hPa 0,0 l/m² 10,8 km/h (2 Bft) SO 135 ° -1,3 °C 2,8 °C
04.03.2018 13:01 24,5 °C 6,2 °C 39 % 59 % 1000,7 hPa 0,0 l/m² 12,2 km/h (2 Bft) O-SO 112 ° -1,2 °C 2,0 °C
04.03.2018 13:03 24,5 °C 6,4 °C 39 % 59 % 1000,7 hPa 0,0 l/m² 7,2 km/h (2 Bft) SO 135 ° -1,0 °C 5,7 °C
04.03.2018 13:05 24,5 °C 6,4 °C 39 % 59 % 1000,7 hPa 0,0 l/m² 14,4 km/h (3 Bft) O-SO 112 ° -1,0 °C 1,1 °C
04.03.2018 13:07 24,5 °C 6,5 °C 39 % 59 % 1000,6 hPa 0,0 l/m² 6,1 km/h (2 Bft) SO 135 ° -0,9 °C 6,5 °C
04.03.2018 13:09 24,5 °C 6,6 °C 39 % 59 % 1000,4 hPa 0,0 l/m² 7,2 km/h (2 Bft) S-SO 157 ° -0,8 °C 5,9 °C
04.03.2018 13:11 24,5 °C 6,6 °C 38 % 59 % 1000,4 hPa 0,0 l/m² 14,4 km/h (3 Bft) O-SO 112 ° -0,8 °C 1,3 °C
04.03.2018 13:13 24,5 °C 6,8 °C 38 % 58 % 1000,4 hPa 0,0 l/m² 13,3 km/h (3 Bft) SO 135 ° -0,9 °C 2,1 °C
04.03.2018 13:15 24,5 °C 6,9 °C 38 % 58 % 1000,4 hPa 0,0 l/m² 9,7 km/h (2 Bft) O-SO 112 ° -0,8 °C 4,4 °C
04.03.2018 13:17 24,5 °C 6,9 °C 38 % 58 % 1000,4 hPa 0,0 l/m² 11,2 km/h (2 Bft) S-SO 157 ° -0,8 °C 3,4 °C
04.03.2018 13:19 24,5 °C 6,9 °C 38 % 58 % 1000,4 hPa 0,0 l/m² 10,8 km/h (2 Bft) SO 135 ° -0,8 °C 3,7 °C
04.03.2018 13:21 24,5 °C 6,9 °C 38 % 58 % 1000,5 hPa 0,0 l/m² 13,0 km/h (3 Bft) O-SO 112 ° -0,8 °C 2,4 °C
04.03.2018 13:23 24,5 °C 6,9 °C 38 % 58 % 1000,4 hPa 0,0 l/m² 9,4 km/h (2 Bft) O-SO 112 ° -0,8 °C 4,6 °C
04.03.2018 13:25 24,5 °C 6,9 °C 38 % 58 % 1000,4 hPa 0,0 l/m² 9,4 km/h (2 Bft) O-SO 112 ° -0,8 °C 4,6 °C
04.03.2018 13:27 24,5 °C 6,9 °C 38 % 58 % 1000,4 hPa 0,0 l/m² 9,4 km/h (2 Bft) O-SO 112 ° -0,8 °C 4,6 °C
04.03.2018 13:29 24,4 °C 7,0 °C 38 % 58 % 1000,4 hPa 0,0 l/m² 8,6 km/h (2 Bft) O-SO 112 ° -0,7 °C 5,3 °C
04.03.2018 13:31 24,4 °C 7,0 °C 38 % 58 % 1000,3 hPa 0,0 l/m² 14,8 km/h (3 Bft) O-SO 112 ° -0,7 °C 1,6 °C
04.03.2018 13:33 24,4 °C 7,1 °C 38 % 58 % 1000,3 hPa 0,0 l/m² 14,4 km/h (3 Bft) O 90 ° -0,6 °C 1,9 °C
04.03.2018 13:35 24,4 °C 7,1 °C 38 % 58 % 1000,3 hPa 0,0 l/m² 15,5 km/h (3 Bft) SO 135 ° -0,6 °C 1,4 °C
04.03.2018 13:37 24,4 °C 7,0 °C 38 % 58 % 1000,3 hPa 0,0 l/m² 10,4 km/h (2 Bft) SO 135 ° -0,7 °C 4,0 °C
04.03.2018 13:39 24,4 °C 7,0 °C 38 % 58 % 1000,2 hPa 0,0 l/m² 16,9 km/h (3 Bft) O-SO 112 ° -0,7 °C 0,6 °C
04.03.2018 13:41 24,4 °C 7,0 °C 38 % 58 % 1000,2 hPa 0,0 l/m² 14,4 km/h (3 Bft) O-SO 112 ° -0,7 °C 1,8 °C
04.03.2018 13:43 24,4 °C 6,9 °C 38 % 58 % 1000,2 hPa 0,0 l/m² 15,8 km/h (3 Bft) O-SO 112 ° -0,8 °C 1,0 °C
04.03.2018 13:45 24,4 °C 7,0 °C 38 % 58 % 1000,1 hPa 0,0 l/m² 19,8 km/h (3 Bft) O-SO 112 ° -0,7 °C -0,5 °C
04.03.2018 13:47 24,4 °C 7,0 °C 38 % 58 % 1000,0 hPa 0,0 l/m² 19,4 km/h (3 Bft) SO 135 ° -0,7 °C -0,4 °C
04.03.2018 13:49 24,4 °C 7,0 °C 38 % 58 % 1000,0 hPa 0,0 l/m² 22,3 km/h (4 Bft) SO 135 ° -0,7 °C -1,4 °C
04.03.2018 13:51 24,4 °C 7,1 °C 38 % 58 % 1000,0 hPa 0,0 l/m² 20,9 km/h (4 Bft) O-SO 112 ° -0,6 °C -0,8 °C
04.03.2018 13:53 24,4 °C 7,2 °C 38 % 58 % 1000,1 hPa 0,0 l/m² 14,4 km/h (3 Bft) O 90 ° -0,5 °C 2,0 °C
04.03.2018 13:55 24,4 °C 7,2 °C 38 % 58 % 1000,0 hPa 0,0 l/m² 14,4 km/h (3 Bft) O 90 ° -0,5 °C 2,0 °C
04.03.2018 13:57 24,4 °C 7,3 °C 38 % 58 % 1000,0 hPa 0,0 l/m² 16,6 km/h (3 Bft) O-SO 112 ° -0,4 °C 1,1 °C
04.03.2018 13:59 24,4 °C 7,5 °C 38 % 58 % 1000,0 hPa 0,0 l/m² 13,7 km/h (3 Bft) O-SO 112 ° -0,2 °C 2,7 °C
04.03.2018 14:01 24,4 °C 7,6 °C 38 % 58 % 1000,0 hPa 0,0 l/m² 14,8 km/h (3 Bft) O-SO 112 ° -0,1 °C 2,3 °C
04.03.2018 14:03 24,4 °C 7,8 °C 38 % 58 % 999,9 hPa 0,0 l/m² 20,9 km/h (4 Bft) O-SO 112 ° 0,1 °C 0,1 °C
04.03.2018 14:05 24,4 °C 7,9 °C 38 % 57 % 999,9 hPa 0,0 l/m² 16,9 km/h (3 Bft) SO 135 ° -0,1 °C 1,8 °C
04.03.2018 14:07 24,4 °C 7,9 °C 38 % 57 % 1000,0 hPa 0,0 l/m² 16,2 km/h (3 Bft) O 90 ° -0,1 °C 2,1 °C
04.03.2018 14:09 24,4 °C 8,2 °C 38 % 58 % 999,9 hPa 0,0 l/m² 13,3 km/h (3 Bft) O-SO 112 ° 0,4 °C 3,8 °C
04.03.2018 14:11 24,4 °C 8,3 °C 38 % 57 % 999,9 hPa 0,0 l/m² 9,4 km/h (2 Bft) O-SO 112 ° 0,3 °C 6,1 °C
04.03.2018 14:13 24,4 °C 8,4 °C 38 % 57 % 999,9 hPa 0,0 l/m² 15,1 km/h (3 Bft) O-SO 112 ° 0,4 °C 3,2 °C
04.03.2018 14:15 24,4 °C 8,5 °C 38 % 57 % 1000,0 hPa 0,0 l/m² 12,6 km/h (3 Bft) SO 135 ° 0,5 °C 4,5 °C
04.03.2018 14:17 24,4 °C 8,6 °C 38 % 57 % 1000,0 hPa 0,0 l/m² 22,7 km/h (4 Bft) S-SO 157 ° 0,6 °C 0,6 °C
04.03.2018 14:19 24,4 °C 8,6 °C 38 % 57 % 1000,0 hPa 0,0 l/m² 11,9 km/h (2 Bft) SO 135 ° 0,6 °C 5,0 °C
04.03.2018 14:21 24,4 °C 8,6 °C 38 % 57 % 999,9 hPa 0,0 l/m² 15,1 km/h (3 Bft) SO 135 ° 0,6 °C 3,4 °C
04.03.2018 14:23 24,4 °C 8,6 °C 38 % 57 % 999,9 hPa 0,0 l/m² 15,8 km/h (3 Bft) SO 135 ° 0,6 °C 3,1 °C
04.03.2018 14:25 24,4 °C 8,6 °C 38 % 57 % 999,9 hPa 0,0 l/m² 13,3 km/h (3 Bft) SO 135 ° 0,6 °C 4,2 °C
04.03.2018 14:27 24,4 °C 8,6 °C 38 % 57 % 999,8 hPa 0,0 l/m² 13,3 km/h (3 Bft) SO 135 ° 0,6 °C 4,2 °C
04.03.2018 14:29 24,4 °C 8,6 °C 38 % 57 % 999,8 hPa 0,0 l/m² 12,2 km/h (2 Bft) SO 135 ° 0,6 °C 4,8 °C
04.03.2018 14:31 24,4 °C 8,7 °C 38 % 57 % 999,8 hPa 0,0 l/m² 11,9 km/h (2 Bft) O 90 ° 0,7 °C 5,1 °C
04.03.2018 14:33 24,4 °C 8,8 °C 38 % 57 % 999,8 hPa 0,0 l/m² 14,8 km/h (3 Bft) O-SO 112 ° 0,8 °C 3,8 °C
04.03.2018 14:35 24,4 °C 8,9 °C 39 % 57 % 999,8 hPa 0,0 l/m² 11,5 km/h (2 Bft) O 90 ° 0,9 °C 5,5 °C
04.03.2018 14:37 24,4 °C 8,9 °C 39 % 57 % 999,6 hPa 0,0 l/m² 16,9 km/h (3 Bft) O-SO 112 ° 0,9 °C 3,0 °C
04.03.2018 14:39 24,4 °C 8,9 °C 39 % 57 % 999,8 hPa 0,0 l/m² 26,3 km/h (4 Bft) O-SO 112 ° 0,9 °C -0,0 °C
04.03.2018 14:41 24,4 °C 8,9 °C 39 % 57 % 999,7 hPa 0,0 l/m² 14,0 km/h (3 Bft) O-SO 112 ° 0,9 °C 4,3 °C
04.03.2018 14:43 24,4 °C 8,9 °C 39 % 57 % 999,6 hPa 0,0 l/m² 16,2 km/h (3 Bft) O-SO 112 ° 0,9 °C 3,3 °C
04.03.2018 14:45 24,4 °C 8,9 °C 39 % 57 % 999,6 hPa 0,0 l/m² 14,8 km/h (3 Bft) O-SO 112 ° 0,9 °C 3,9 °C
04.03.2018 14:47 24,4 °C 9,0 °C 39 % 57 % 999,6 hPa 0,0 l/m² 10,8 km/h (2 Bft) O-SO 112 ° 0,9 °C 6,0 °C
04.03.2018 14:49 24,4 °C 8,9 °C 39 % 57 % 999,6 hPa 0,0 l/m² 11,5 km/h (2 Bft) O-SO 112 ° 0,9 °C 5,5 °C
04.03.2018 14:51 24,4 °C 8,9 °C 39 % 57 % 999,6 hPa 0,0 l/m² 13,7 km/h (3 Bft) SO 135 ° 0,9 °C 4,4 °C
04.03.2018 14:53 24,4 °C 8,8 °C 39 % 57 % 999,6 hPa 0,0 l/m² 14,8 km/h (3 Bft) O-SO 112 ° 0,8 °C 3,8 °C
04.03.2018 14:55 24,4 °C 8,7 °C 39 % 57 % 999,5 hPa 0,0 l/m² 20,5 km/h (4 Bft) O-SO 112 ° 0,7 °C 1,4 °C
04.03.2018 14:57 24,4 °C 8,7 °C 39 % 57 % 999,6 hPa 0,0 l/m² 20,5 km/h (4 Bft) O-SO 112 ° 0,7 °C 1,4 °C
04.03.2018 14:59 24,4 °C 8,6 °C 39 % 57 % 999,6 hPa 0,0 l/m² 17,3 km/h (3 Bft) SO 135 ° 0,6 °C 2,5 °C
04.03.2018 15:01 24,4 °C 8,6 °C 39 % 57 % 999,5 hPa 0,0 l/m² 14,0 km/h (3 Bft) SO 135 ° 0,6 °C 3,9 °C
04.03.2018 15:03 24,4 °C 8,6 °C 39 % 57 % 999,4 hPa 0,0 l/m² 13,3 km/h (3 Bft) O-SO 112 ° 0,6 °C 4,2 °C
04.03.2018 15:05 24,4 °C 8,5 °C 39 % 57 % 999,5 hPa 0,0 l/m² 12,6 km/h (3 Bft) O-SO 112 ° 0,5 °C 4,5 °C
04.03.2018 15:07 24,4 °C 8,7 °C 39 % 58 % 999,4 hPa 0,0 l/m² 14,4 km/h (3 Bft) SO 135 ° 0,9 °C 3,8 °C
04.03.2018 15:09 24,4 °C 8,8 °C 39 % 58 % 999,4 hPa 0,0 l/m² 16,6 km/h (3 Bft) O-SO 112 ° 1,0 °C 3,0 °C
04.03.2018 15:11 24,4 °C 8,9 °C 39 % 58 % 999,4 hPa 0,0 l/m² 16,6 km/h (3 Bft) SO 135 ° 1,1 °C 3,1 °C
04.03.2018 15:13 24,4 °C 8,9 °C 40 % 57 % 999,3 hPa 0,0 l/m² 19,1 km/h (3 Bft) SO 135 ° 0,9 °C 2,2 °C
04.03.2018 15:15 24,4 °C 8,9 °C 40 % 57 % 999,4 hPa 0,0 l/m² 21,6 km/h (4 Bft) SO 135 ° 0,9 °C 1,3 °C
04.03.2018 15:17 24,4 °C 8,9 °C 40 % 57 % 999,5 hPa 0,0 l/m² 10,8 km/h (2 Bft) SO 135 ° 0,9 °C 5,9 °C
04.03.2018 15:19 24,4 °C 8,9 °C 40 % 57 % 999,5 hPa 0,0 l/m² 20,5 km/h (4 Bft) SO 135 ° 0,9 °C 1,7 °C
04.03.2018 15:21 24,4 °C 8,8 °C 41 % 57 % 999,5 hPa 0,0 l/m² 14,4 km/h (3 Bft) SO 135 ° 0,8 °C 4,0 °C
04.03.2018 15:23 24,4 °C 8,8 °C 41 % 57 % 999,5 hPa 0,0 l/m² 18,7 km/h (3 Bft) SO 135 ° 0,8 °C 2,2 °C
04.03.2018 15:25 24,4 °C 8,6 °C 41 % 57 % 999,5 hPa 0,0 l/m² 13,0 km/h (3 Bft) SO 135 ° 0,6 °C 4,4 °C
04.03.2018 15:27 24,4 °C 8,6 °C 41 % 57 % 999,6 hPa 0,0 l/m² 13,0 km/h (3 Bft) SO 135 ° 0,6 °C 4,4 °C
04.03.2018 15:29 24,4 °C 8,5 °C 41 % 57 % 999,6 hPa 0,0 l/m² 16,9 km/h (3 Bft) SO 135 ° 0,5 °C 2,5 °C
04.03.2018 15:31 24,4 °C 8,4 °C 41 % 57 % 999,6 hPa 0,0 l/m² 17,3 km/h (3 Bft) SO 135 ° 0,4 °C 2,2 °C
04.03.2018 15:33 24,4 °C 8,3 °C 41 % 57 % 999,8 hPa 0,0 l/m² 13,3 km/h (3 Bft) SO 135 ° 0,3 °C 3,9 °C
04.03.2018 15:35 24,4 °C 8,3 °C 41 % 57 % 999,8 hPa 0,0 l/m² 13,0 km/h (3 Bft) S-SO 157 ° 0,3 °C 4,0 °C
04.03.2018 15:37 24,4 °C 8,3 °C 41 % 58 % 999,8 hPa 0,0 l/m² 11,9 km/h (2 Bft) S-SO 157 ° 0,5 °C 4,6 °C
04.03.2018 15:39 24,4 °C 8,2 °C 41 % 58 % 999,7 hPa 0,0 l/m² 12,2 km/h (2 Bft) SO 135 ° 0,4 °C 4,3 °C
04.03.2018 15:41 24,4 °C 8,2 °C 40 % 58 % 999,7 hPa 0,0 l/m² 7,6 km/h (2 Bft) SO 135 ° 0,4 °C 7,3 °C
04.03.2018 15:43 24,4 °C 8,2 °C 40 % 58 % 999,8 hPa 0,0 l/m² 12,2 km/h (2 Bft) S-SO 157 ° 0,4 °C 4,3 °C
04.03.2018 15:45 24,4 °C 8,3 °C 39 % 58 % 999,4 hPa 0,0 l/m² 6,5 km/h (2 Bft) SO 135 ° 0,5 °C 8,2 °C
04.03.2018 15:47 24,3 °C 8,3 °C 39 % 58 % 999,3 hPa 0,0 l/m² 15,1 km/h (3 Bft) SO 135 ° 0,5 °C 3,0 °C
04.03.2018 15:49 24,3 °C 8,3 °C 39 % 58 % 999,2 hPa 0,0 l/m² 16,9 km/h (3 Bft) SO 135 ° 0,5 °C 2,3 °C
04.03.2018 15:51 24,3 °C 8,4 °C 39 % 58 % 999,2 hPa 0,0 l/m² 10,1 km/h (2 Bft) S-SO 157 ° 0,6 °C 5,8 °C
04.03.2018 15:53 24,3 °C 8,4 °C 39 % 58 % 999,1 hPa 0,0 l/m² 8,3 km/h (2 Bft) SO 135 ° 0,6 °C 7,0 °C
04.03.2018 15:55 24,3 °C 8,5 °C 39 % 58 % 999,2 hPa 0,0 l/m² 10,8 km/h (2 Bft) O-SO 112 ° 0,7 °C 5,5 °C
04.03.2018 15:57 24,3 °C 8,5 °C 39 % 58 % 999,2 hPa 0,0 l/m² 10,4 km/h (2 Bft) SO 135 ° 0,7 °C 5,7 °C
04.03.2018 15:59 24,2 °C 8,5 °C 39 % 58 % 999,3 hPa 0,0 l/m² 10,4 km/h (2 Bft) SO 135 ° 0,7 °C 5,7 °C
04.03.2018 16:01 24,2 °C 8,6 °C 39 % 58 % 999,2 hPa 0,0 l/m² 12,6 km/h (3 Bft) SO 135 ° 0,8 °C 4,6 °C
04.03.2018 16:03 24,2 °C 8,6 °C 39 % 58 % 999,1 hPa 0,0 l/m² 10,4 km/h (2 Bft) SO 135 ° 0,8 °C 5,8 °C
04.03.2018 16:05 24,2 °C 8,5 °C 39 % 58 % 999,2 hPa 0,0 l/m² 13,3 km/h (3 Bft) SO 135 ° 0,7 °C 4,1 °C
04.03.2018 16:07 24,2 °C 8,5 °C 39 % 58 % 999,1 hPa 0,0 l/m² 8,3 km/h (2 Bft) SO 135 ° 0,7 °C 7,1 °C
04.03.2018 16:09 24,2 °C 8,5 °C 39 % 58 % 999,0 hPa 0,0 l/m² 9,0 km/h (2 Bft) SO 135 ° 0,7 °C 6,6 °C
04.03.2018 16:11 24,2 °C 8,5 °C 39 % 58 % 998,9 hPa 0,0 l/m² 13,0 km/h (3 Bft) O-SO 112 ° 0,7 °C 4,3 °C
04.03.2018 16:13 24,2 °C 8,4 °C 39 % 58 % 999,1 hPa 0,0 l/m² 9,0 km/h (2 Bft) O-SO 112 ° 0,6 °C 6,5 °C
04.03.2018 16:15 24,2 °C 8,4 °C 39 % 58 % 999,0 hPa 0,0 l/m² 9,4 km/h (2 Bft) O-SO 112 ° 0,6 °C 6,2 °C
04.03.2018 16:17 24,2 °C 8,4 °C 39 % 58 % 998,8 hPa 0,0 l/m² 10,8 km/h (2 Bft) SO 135 ° 0,6 °C 5,3 °C
04.03.2018 16:19 24,2 °C 8,4 °C 39 % 58 % 998,8 hPa 0,0 l/m² 9,4 km/h (2 Bft) O-SO 112 ° 0,6 °C 6,2 °C
04.03.2018 16:21 24,2 °C 8,3 °C 39 % 57 % 998,9 hPa 0,0 l/m² 13,7 km/h (3 Bft) O 90 ° 0,3 °C 3,7 °C
04.03.2018 16:23 24,2 °C 8,2 °C 39 % 56 % 999,0 hPa 0,0 l/m² 14,4 km/h (3 Bft) O 90 ° -0,0 °C 3,2 °C
04.03.2018 16:25 24,2 °C 8,1 °C 39 % 55 % 998,9 hPa 0,0 l/m² 7,2 km/h (2 Bft) O-SO 112 ° -0,4 °C 7,5 °C
04.03.2018 16:27 24,2 °C 8,0 °C 39 % 55 % 998,9 hPa 0,0 l/m² 13,3 km/h (3 Bft) O-NO 67 ° -0,5 °C 3,5 °C
04.03.2018 16:29 24,2 °C 8,0 °C 39 % 55 % 998,9 hPa 0,0 l/m² 13,3 km/h (3 Bft) O-NO 67 ° -0,5 °C 3,5 °C
04.03.2018 16:31 24,2 °C 7,9 °C 39 % 54 % 998,9 hPa 0,0 l/m² 10,8 km/h (2 Bft) O-SO 112 ° -0,8 °C 4,8 °C
04.03.2018 16:33 24,2 °C 7,8 °C 39 % 54 % 998,9 hPa 0,0 l/m² 6,1 km/h (2 Bft) O 90 ° -0,9 °C 7,8 °C
04.03.2018 16:35 24,2 °C 7,8 °C 39 % 53 % 999,0 hPa 0,0 l/m² 4,7 km/h (1 Bft) O 90 ° -1,2 °C 7,8 °C
04.03.2018 16:37 24,2 °C 7,6 °C 39 % 53 % 998,9 hPa 0,0 l/m² 9,4 km/h (2 Bft) O 90 ° -1,4 °C 5,3 °C
04.03.2018 16:39 24,2 °C 7,6 °C 39 % 53 % 998,8 hPa 0,0 l/m² 8,3 km/h (2 Bft) O 90 ° -1,4 °C 6,1 °C
04.03.2018 16:41 24,2 °C 7,6 °C 39 % 53 % 998,8 hPa 0,0 l/m² 9,7 km/h (2 Bft) NO 45 ° -1,4 °C 5,1 °C
04.03.2018 16:43 24,2 °C 7,6 °C 39 % 53 % 998,8 hPa 0,0 l/m² 13,7 km/h (3 Bft) O-SO 112 ° -1,4 °C 2,9 °C
04.03.2018 16:45 24,2 °C 7,6 °C 39 % 52 % 998,8 hPa 0,0 l/m² 11,5 km/h (2 Bft) O-SO 112 ° -1,6 °C 4,0 °C
04.03.2018 16:47 24,2 °C 7,5 °C 39 % 52 % 998,7 hPa 0,0 l/m² 19,8 km/h (3 Bft) O-SO 112 ° -1,7 °C 0,1 °C
04.03.2018 16:49 24,2 °C 7,4 °C 39 % 52 % 998,7 hPa 0,0 l/m² 18,0 km/h (3 Bft) O-SO 112 ° -1,8 °C 0,7 °C
04.03.2018 16:51 24,2 °C 7,3 °C 39 % 52 % 998,8 hPa 0,0 l/m² 15,5 km/h (3 Bft) O 90 ° -1,9 °C 1,6 °C
04.03.2018 16:53 24,2 °C 7,1 °C 39 % 52 % 998,9 hPa 0,0 l/m² 13,0 km/h (3 Bft) O-SO 112 ° -2,1 °C 2,6 °C
04.03.2018 16:55 24,2 °C 7,0 °C 39 % 52 % 998,8 hPa 0,0 l/m² 14,4 km/h (3 Bft) O 90 ° -2,2 °C 1,8 °C
04.03.2018 16:57 24,2 °C 6,9 °C 39 % 52 % 998,7 hPa 0,0 l/m² 9,4 km/h (2 Bft) O-SO 112 ° -2,3 °C 4,6 °C
04.03.2018 16:59 24,2 °C 6,9 °C 39 % 52 % 998,8 hPa 0,0 l/m² 9,4 km/h (2 Bft) O-SO 112 ° -2,3 °C 4,6 °C
04.03.2018 17:01 24,2 °C 6,9 °C 39 % 52 % 998,8 hPa 0,0 l/m² 13,3 km/h (3 Bft) O-SO 112 ° -2,3 °C 2,2 °C
04.03.2018 17:03 24,2 °C 6,9 °C 39 % 52 % 998,8 hPa 0,0 l/m² 15,5 km/h (3 Bft) O-SO 112 ° -2,3 °C 1,1 °C
04.03.2018 17:05 24,2 °C 6,9 °C 39 % 52 % 998,6 hPa 0,0 l/m² 16,9 km/h (3 Bft) O-SO 112 ° -2,3 °C 0,5 °C
04.03.2018 17:07 24,2 °C 6,9 °C 39 % 52 % 998,8 hPa 0,0 l/m² 6,1 km/h (2 Bft) O 90 ° -2,3 °C 6,9 °C
04.03.2018 17:09 24,3 °C 6,9 °C 39 % 52 % 998,9 hPa 0,0 l/m² 11,9 km/h (2 Bft) O 90 ° -2,3 °C 3,0 °C
04.03.2018 17:11 24,3 °C 6,9 °C 39 % 52 % 998,8 hPa 0,0 l/m² 13,7 km/h (3 Bft) O 90 ° -2,3 °C 2,0 °C
04.03.2018 17:13 24,3 °C 6,8 °C 39 % 52 % 998,8 hPa 0,0 l/m² 15,8 km/h (3 Bft) O-SO 112 ° -2,4 °C 0,9 °C
04.03.2018 17:15 24,3 °C 6,7 °C 39 % 52 % 998,8 hPa 0,0 l/m² 13,7 km/h (3 Bft) O 90 ° -2,4 °C 1,8 °C
04.03.2018 17:17 24,3 °C 6,6 °C 39 % 52 % 998,8 hPa 0,0 l/m² 14,8 km/h (3 Bft) O-SO 112 ° -2,5 °C 1,1 °C
04.03.2018 17:19 24,3 °C 6,5 °C 39 % 52 % 998,7 hPa 0,0 l/m² 11,2 km/h (2 Bft) O 90 ° -2,6 °C 3,0 °C
04.03.2018 17:21 24,3 °C 6,4 °C 39 % 52 % 998,8 hPa 0,0 l/m² 14,0 km/h (3 Bft) O-SO 112 ° -2,7 °C 1,3 °C
04.03.2018 17:23 24,3 °C 6,2 °C 39 % 52 % 998,7 hPa 0,0 l/m² 14,4 km/h (3 Bft) O-SO 112 ° -2,9 °C 0,8 °C
04.03.2018 17:25 24,4 °C 6,1 °C 39 % 52 % 998,7 hPa 0,0 l/m² 14,4 km/h (3 Bft) O 90 ° -3,0 °C 0,7 °C
04.03.2018 17:27 24,4 °C 5,9 °C 39 % 52 % 998,7 hPa 0,0 l/m² 12,6 km/h (3 Bft) O-SO 112 ° -3,2 °C 1,4 °C
04.03.2018 17:29 24,4 °C 5,9 °C 39 % 52 % 998,7 hPa 0,0 l/m² 12,6 km/h (3 Bft) O-SO 112 ° -3,2 °C 1,4 °C
04.03.2018 17:31 24,4 °C 5,8 °C 39 % 52 % 998,7 hPa 0,0 l/m² 14,4 km/h (3 Bft) O 90 ° -3,3 °C 0,3 °C
04.03.2018 17:33 24,4 °C 5,6 °C 39 % 52 % 998,7 hPa 0,0 l/m² 13,7 km/h (3 Bft) O-SO 112 ° -3,5 °C 0,5 °C
04.03.2018 17:35 24,4 °C 5,5 °C 40 % 53 % 998,7 hPa 0,0 l/m² 14,8 km/h (3 Bft) O-SO 112 ° -3,3 °C -0,2 °C
04.03.2018 17:37 24,4 °C 5,4 °C 40 % 53 % 998,7 hPa 0,0 l/m² 14,0 km/h (3 Bft) O-SO 112 ° -3,4 °C 0,1 °C
04.03.2018 17:39 24,4 °C 5,3 °C 40 % 53 % 998,8 hPa 0,0 l/m² 12,2 km/h (2 Bft) O-SO 112 ° -3,5 °C 1,0 °C
04.03.2018 17:41 24,4 °C 5,1 °C 40 % 53 % 998,7 hPa 0,0 l/m² 12,6 km/h (3 Bft) O 90 ° -3,7 °C 0,5 °C
04.03.2018 17:43 24,4 °C 4,9 °C 40 % 54 % 998,7 hPa 0,0 l/m² 15,1 km/h (3 Bft) O-SO 112 ° -3,6 °C -1,1 °C
04.03.2018 17:45 24,4 °C 4,8 °C 40 % 54 % 998,8 hPa 0,0 l/m² 10,1 km/h (2 Bft) O-SO 112 ° -3,7 °C 1,8 °C
04.03.2018 17:47 24,4 °C 4,6 °C 40 % 54 % 998,8 hPa 0,0 l/m² 12,6 km/h (3 Bft) O-SO 112 ° -3,9 °C -0,1 °C
04.03.2018 17:49 24,3 °C 4,5 °C 40 % 54 % 998,7 hPa 0,0 l/m² 10,4 km/h (2 Bft) O-SO 112 ° -4,0 °C 1,2 °C
04.03.2018 17:51 24,4 °C 4,4 °C 40 % 54 % 998,6 hPa 0,0 l/m² 7,2 km/h (2 Bft) O 90 ° -4,1 °C 3,7 °C
04.03.2018 17:53 24,3 °C 4,3 °C 40 % 55 % 998,6 hPa 0,0 l/m² 8,3 km/h (2 Bft) O 90 ° -3,9 °C 2,6 °C
04.03.2018 17:55 24,3 °C 4,1 °C 40 % 54 % 998,7 hPa 0,0 l/m² 7,9 km/h (2 Bft) O 90 ° -4,4 °C 2,7 °C
04.03.2018 17:57 24,3 °C 4,1 °C 40 % 55 % 998,6 hPa 0,0 l/m² 6,8 km/h (2 Bft) O 90 ° -4,1 °C 3,7 °C
04.03.2018 17:59 24,3 °C 4,1 °C 40 % 55 % 998,7 hPa 0,0 l/m² 6,8 km/h (2 Bft) O 90 ° -4,1 °C 3,7 °C
04.03.2018 18:01 24,3 °C 3,9 °C 40 % 55 % 998,7 hPa 0,0 l/m² 5,8 km/h (2 Bft) O 90 ° -4,3 °C 3,9 °C
04.03.2018 18:03 24,3 °C 3,8 °C 40 % 55 % 998,7 hPa 0,0 l/m² 10,1 km/h (2 Bft) O 90 ° -4,4 °C 0,7 °C
04.03.2018 18:05 24,3 °C 3,6 °C 40 % 55 % 998,7 hPa 0,0 l/m² 7,9 km/h (2 Bft) O 90 ° -4,6 °C 2,2 °C
04.03.2018 18:07 24,3 °C 3,5 °C 40 % 56 % 998,7 hPa 0,0 l/m² 8,3 km/h (2 Bft) O 90 ° -4,4 °C 1,8 °C
04.03.2018 18:09 24,2 °C 3,4 °C 39 % 56 % 998,6 hPa 0,0 l/m² 7,6 km/h (2 Bft) O 90 ° -4,5 °C 2,3 °C
04.03.2018 18:11 24,2 °C 3,4 °C 39 % 56 % 998,7 hPa 0,0 l/m² 10,8 km/h (2 Bft) O-SO 112 ° -4,5 °C -0,3 °C
04.03.2018 18:13 24,2 °C 3,3 °C 39 % 56 % 998,7 hPa 0,0 l/m² 8,6 km/h (2 Bft) O 90 ° -4,6 °C 1,3 °C
04.03.2018 18:15 24,2 °C 3,3 °C 39 % 56 % 998,7 hPa 0,0 l/m² 5,8 km/h (2 Bft) O-NO 67 ° -4,6 °C 3,3 °C
04.03.2018 18:17 24,2 °C 3,3 °C 39 % 57 % 998,6 hPa 0,0 l/m² 7,2 km/h (2 Bft) O-NO 67 ° -4,4 °C 2,5 °C
04.03.2018 18:19 24,2 °C 3,2 °C 39 % 57 % 998,6 hPa 0,0 l/m² 9,7 km/h (2 Bft) O 90 ° -4,5 °C 0,3 °C
04.03.2018 18:21 24,2 °C 3,2 °C 39 % 57 % 998,7 hPa 0,0 l/m² 5,0 km/h (1 Bft) O 90 ° -4,5 °C 3,2 °C
04.03.2018 18:23 24,2 °C 3,1 °C 39 % 57 % 998,6 hPa 0,0 l/m² 7,6 km/h (2 Bft) O 90 ° -4,6 °C 2,0 °C
04.03.2018 18:25 24,2 °C 3,0 °C 39 % 57 % 998,6 hPa 0,0 l/m² 6,5 km/h (2 Bft) O 90 ° -4,7 °C 2,9 °C
04.03.2018 18:27 24,2 °C 2,9 °C 39 % 57 % 998,6 hPa 0,0 l/m² 9,4 km/h (2 Bft) O 90 ° -4,8 °C 0,2 °C
04.03.2018 18:29 24,2 °C 2,9 °C 39 % 58 % 998,6 hPa 0,0 l/m² 10,1 km/h (2 Bft) O 90 ° -4,5 °C -0,3 °C
04.03.2018 18:31 24,2 °C 2,9 °C 40 % 58 % 998,6 hPa 0,0 l/m² 10,1 km/h (2 Bft) O 90 ° -4,5 °C -0,3 °C
04.03.2018 18:33 24,2 °C 2,8 °C 40 % 58 % 998,5 hPa 0,0 l/m² 9,0 km/h (2 Bft) O-NO 67 ° -4,6 °C 0,4 °C
04.03.2018 18:35 24,2 °C 2,7 °C 40 % 58 % 998,6 hPa 0,0 l/m² 4,3 km/h (1 Bft) O-NO 67 ° -4,7 °C 2,7 °C
04.03.2018 18:37 24,2 °C 2,6 °C 40 % 58 % 998,5 hPa 0,0 l/m² 11,2 km/h (2 Bft) O 90 ° -4,8 °C -1,5 °C
04.03.2018 18:39 24,2 °C 2,6 °C 40 % 58 % 998,5 hPa 0,0 l/m² 8,3 km/h (2 Bft) O-NO 67 ° -4,8 °C 0,8 °C
04.03.2018 18:41 24,2 °C 2,6 °C 40 % 58 % 998,6 hPa 0,0 l/m² 10,4 km/h (2 Bft) O-NO 67 ° -4,8 °C -0,9 °C
04.03.2018 18:43 24,2 °C 2,5 °C 40 % 59 % 998,5 hPa 0,0 l/m² 10,4 km/h (2 Bft) O 90 ° -4,7 °C -1,0 °C
04.03.2018 18:45 24,2 °C 2,5 °C 40 % 59 % 998,5 hPa 0,0 l/m² 6,1 km/h (2 Bft) O-NO 67 ° -4,7 °C 2,5 °C
04.03.2018 18:47 24,2 °C 2,4 °C 41 % 59 % 998,5 hPa 0,0 l/m² 9,7 km/h (2 Bft) O 90 ° -4,8 °C -0,6 °C
04.03.2018 18:49 24,2 °C 2,4 °C 41 % 59 % 998,5 hPa 0,0 l/m² 13,3 km/h (3 Bft) O 90 ° -4,8 °C -3,1 °C
04.03.2018 18:51 24,2 °C 2,4 °C 41 % 59 % 998,4 hPa 0,0 l/m² 9,4 km/h (2 Bft) O 90 ° -4,8 °C -0,3 °C
04.03.2018 18:53 24,2 °C 2,3 °C 41 % 59 % 998,4 hPa 0,0 l/m² 10,1 km/h (2 Bft) O 90 ° -4,9 °C -1,0 °C
04.03.2018 18:55 24,2 °C 2,3 °C 41 % 60 % 998,5 hPa 0,0 l/m² 8,3 km/h (2 Bft) O 90 ° -4,6 °C 0,5 °C
04.03.2018 18:57 24,2 °C 2,2 °C 41 % 60 % 998,5 hPa 0,0 l/m² 15,5 km/h (3 Bft) O-NO 67 ° -4,7 °C -4,6 °C
04.03.2018 18:59 24,2 °C 2,2 °C 41 % 60 % 998,4 hPa 0,0 l/m² 9,4 km/h (2 Bft) O 90 ° -4,7 °C -0,5 °C
04.03.2018 19:01 24,2 °C 2,2 °C 41 % 60 % 998,4 hPa 0,0 l/m² 9,4 km/h (2 Bft) O 90 ° -4,7 °C -0,5 °C
04.03.2018 19:03 24,2 °C 2,1 °C 41 % 60 % 998,4 hPa 0,0 l/m² 6,5 km/h (2 Bft) O 90 ° -4,8 °C 2,0 °C
04.03.2018 19:05 24,2 °C 2,1 °C 41 % 60 % 998,3 hPa 0,0 l/m² 7,9 km/h (2 Bft) O 90 ° -4,8 °C 0,7 °C
04.03.2018 19:07 24,2 °C 2,1 °C 41 % 60 % 998,3 hPa 0,0 l/m² 9,4 km/h (2 Bft) O-SO 112 ° -4,8 °C -0,7 °C
04.03.2018 19:09 24,2 °C 2,1 °C 41 % 61 % 998,3 hPa 0,0 l/m² 14,8 km/h (3 Bft) O 90 ° -4,6 °C -4,3 °C
04.03.2018 19:11 24,2 °C 2,0 °C 41 % 61 % 998,4 hPa 0,0 l/m² 10,8 km/h (2 Bft) O 90 ° -4,7 °C -1,8 °C
04.03.2018 19:13 24,2 °C 1,9 °C 41 % 61 % 998,4 hPa 0,0 l/m² 9,7 km/h (2 Bft) O-NO 67 ° -4,8 °C -1,1 °C
04.03.2018 19:15 24,2 °C 1,9 °C 41 % 61 % 998,1 hPa 0,0 l/m² 11,5 km/h (2 Bft) O 90 ° -4,8 °C -2,5 °C
04.03.2018 19:17 24,2 °C 1,9 °C 41 % 61 % 998,2 hPa 0,0 l/m² 14,4 km/h (3 Bft) O 90 ° -4,8 °C -4,3 °C
04.03.2018 19:19 24,2 °C 1,9 °C 41 % 61 % 998,2 hPa 0,0 l/m² 9,4 km/h (2 Bft) O-NO 67 ° -4,8 °C -0,9 °C
04.03.2018 19:21 24,2 °C 1,8 °C 41 % 61 % 998,3 hPa 0,0 l/m² 12,2 km/h (2 Bft) O 90 ° -4,9 °C -3,1 °C
04.03.2018 19:23 24,2 °C 1,8 °C 41 % 61 % 998,3 hPa 0,0 l/m² 12,6 km/h (3 Bft) O 90 ° -4,9 °C -3,3 °C
04.03.2018 19:25 24,2 °C 1,8 °C 41 % 61 % 998,2 hPa 0,0 l/m² 11,9 km/h (2 Bft) O 90 ° -4,9 °C -2,9 °C
04.03.2018 19:27 24,2 °C 1,8 °C 41 % 61 % 998,3 hPa 0,0 l/m² 9,7 km/h (2 Bft) O 90 ° -4,9 °C -1,2 °C
04.03.2018 19:29 24,2 °C 1,7 °C 41 % 61 % 998,3 hPa 0,0 l/m² 8,3 km/h (2 Bft) O 90 ° -5,0 °C -0,1 °C
04.03.2018 19:31 24,2 °C 1,7 °C 41 % 61 % 998,3 hPa 0,0 l/m² 8,3 km/h (2 Bft) O 90 ° -5,0 °C -0,1 °C
04.03.2018 19:33 24,2 °C 1,7 °C 41 % 61 % 998,1 hPa 0,0 l/m² 13,0 km/h (3 Bft) O 90 ° -5,0 °C -3,7 °C
04.03.2018 19:35 24,2 °C 1,7 °C 41 % 61 % 998,3 hPa 0,0 l/m² 11,2 km/h (2 Bft) O 90 ° -5,0 °C -2,5 °C
04.03.2018 19:37 24,2 °C 1,6 °C 41 % 61 % 998,3 hPa 0,0 l/m² 11,9 km/h (2 Bft) O 90 ° -5,1 °C -3,1 °C
04.03.2018 19:39 24,2 °C 1,6 °C 40 % 61 % 998,2 hPa 0,0 l/m² 9,7 km/h (2 Bft) O 90 ° -5,1 °C -1,4 °C
04.03.2018 19:41 24,2 °C 1,6 °C 40 % 62 % 998,2 hPa 0,0 l/m² 11,2 km/h (2 Bft) O 90 ° -4,9 °C -2,6 °C
04.03.2018 19:43 24,2 °C 1,5 °C 40 % 62 % 998,2 hPa 0,0 l/m² 5,8 km/h (2 Bft) O-SO 112 ° -5,0 °C 1,5 °C
04.03.2018 19:45 24,2 °C 1,5 °C 40 % 62 % 998,2 hPa 0,0 l/m² 8,3 km/h (2 Bft) O 90 ° -5,0 °C -0,3 °C
04.03.2018 19:47 24,2 °C 1,4 °C 40 % 62 % 998,2 hPa 0,0 l/m² 12,6 km/h (3 Bft) O 90 ° -5,1 °C -3,8 °C
04.03.2018 19:49 24,2 °C 1,4 °C 40 % 62 % 998,3 hPa 0,0 l/m² 7,9 km/h (2 Bft) O 90 ° -5,1 °C -0,1 °C
04.03.2018 19:51 24,2 °C 1,3 °C 40 % 62 % 998,1 hPa 0,0 l/m² 7,6 km/h (2 Bft) O 90 ° -5,2 °C 0,1 °C
04.03.2018 19:53 24,2 °C 1,3 °C 40 % 62 % 998,1 hPa 0,0 l/m² 13,0 km/h (3 Bft) O 90 ° -5,2 °C -4,2 °C
04.03.2018 19:55 24,2 °C 1,3 °C 40 % 63 % 998,1 hPa 0,0 l/m² 12,6 km/h (3 Bft) O 90 ° -5,0 °C -3,9 °C
04.03.2018 19:57 24,2 °C 1,3 °C 39 % 63 % 998,2 hPa 0,0 l/m² 15,1 km/h (3 Bft) O 90 ° -5,0 °C -5,5 °C
04.03.2018 19:59 24,2 °C 1,2 °C 39 % 63 % 998,1 hPa 0,0 l/m² 14,0 km/h (3 Bft) O 90 ° -5,0 °C -4,9 °C
04.03.2018 20:01 24,2 °C 1,2 °C 39 % 63 % 998,1 hPa 0,0 l/m² 14,0 km/h (3 Bft) O 90 ° -5,0 °C -4,9 °C
04.03.2018 20:03 24,2 °C 1,2 °C 39 % 63 % 998,1 hPa 0,0 l/m² 15,8 km/h (3 Bft) O-NO 67 ° -5,0 °C -6,0 °C
04.03.2018 20:05 24,2 °C 1,1 °C 39 % 63 % 998,1 hPa 0,0 l/m² 11,5 km/h (2 Bft) O-SO 112 ° -5,1 °C -3,4 °C
04.03.2018 20:07 24,1 °C 1,1 °C 39 % 63 % 998,0 hPa 0,0 l/m² 12,2 km/h (2 Bft) O-NO 67 ° -5,1 °C -3,9 °C
04.03.2018 20:09 24,1 °C 1,0 °C 39 % 63 % 997,9 hPa 0,0 l/m² 14,8 km/h (3 Bft) O 90 ° -5,2 °C -5,7 °C
04.03.2018 20:11 24,1 °C 1,0 °C 39 % 63 % 998,0 hPa 0,0 l/m² 11,9 km/h (2 Bft) O 90 ° -5,2 °C -3,8 °C
04.03.2018 20:13 24,2 °C 0,9 °C 40 % 63 % 997,9 hPa 0,0 l/m² 12,2 km/h (2 Bft) O 90 ° -5,3 °C -4,1 °C
04.03.2018 20:15 24,1 °C 0,9 °C 40 % 63 % 997,9 hPa 0,0 l/m² 16,2 km/h (3 Bft) O 90 ° -5,3 °C -6,6 °C
04.03.2018 20:17 24,2 °C 0,9 °C 40 % 63 % 997,8 hPa 0,0 l/m² 10,4 km/h (2 Bft) O 90 ° -5,3 °C -2,8 °C
04.03.2018 20:19 24,2 °C 0,8 °C 40 % 64 % 997,7 hPa 0,0 l/m² 12,6 km/h (3 Bft) O 90 ° -5,2 °C -4,5 °C
04.03.2018 20:21 24,2 °C 0,8 °C 40 % 64 % 997,8 hPa 0,0 l/m² 13,0 km/h (3 Bft) O 90 ° -5,2 °C -4,8 °C
04.03.2018 20:23 24,2 °C 0,7 °C 40 % 64 % 997,9 hPa 0,0 l/m² 11,9 km/h (2 Bft) O 90 ° -5,3 °C -4,1 °C
04.03.2018 20:25 24,2 °C 0,6 °C 40 % 64 % 998,0 hPa 0,0 l/m² 11,5 km/h (2 Bft) O 90 ° -5,4 °C -3,9 °C
04.03.2018 20:27 24,2 °C 0,6 °C 40 % 64 % 997,9 hPa 0,0 l/m² 11,5 km/h (2 Bft) O 90 ° -5,4 °C -3,9 °C
04.03.2018 20:29 24,2 °C 0,5 °C 40 % 65 % 998,0 hPa 0,0 l/m² 11,9 km/h (2 Bft) O 90 ° -5,3 °C -4,4 °C
04.03.2018 20:31 24,2 °C 0,5 °C 41 % 65 % 997,9 hPa 0,0 l/m² 11,9 km/h (2 Bft) O 90 ° -5,3 °C -4,4 °C
04.03.2018 20:33 24,2 °C 0,4 °C 41 % 65 % 998,0 hPa 0,0 l/m² 9,4 km/h (2 Bft) O 90 ° -5,4 °C -2,5 °C
04.03.2018 20:35 24,2 °C 0,4 °C 41 % 65 % 998,0 hPa 0,0 l/m² 11,9 km/h (2 Bft) O 90 ° -5,4 °C -4,5 °C
04.03.2018 20:37 24,3 °C 0,4 °C 41 % 65 % 997,9 hPa 0,0 l/m² 9,7 km/h (2 Bft) O 90 ° -5,4 °C -2,8 °C
04.03.2018 20:39 24,3 °C 0,4 °C 41 % 65 % 998,1 hPa 0,0 l/m² 11,9 km/h (2 Bft) O 90 ° -5,4 °C -4,5 °C
04.03.2018 20:41 24,3 °C 0,3 °C 41 % 65 % 998,0 hPa 0,0 l/m² 12,2 km/h (2 Bft) O 90 ° -5,5 °C -4,8 °C
04.03.2018 20:43 24,4 °C 0,3 °C 41 % 65 % 997,9 hPa 0,0 l/m² 10,8 km/h (2 Bft) O-SO 112 ° -5,5 °C -3,8 °C
04.03.2018 20:45 24,4 °C 0,2 °C 42 % 66 % 997,9 hPa 0,0 l/m² 7,6 km/h (2 Bft) O 90 ° -5,4 °C -1,0 °C
04.03.2018 20:47 24,4 °C 0,2 °C 42 % 66 % 998,0 hPa 0,0 l/m² 7,2 km/h (2 Bft) O 90 ° -5,4 °C -0,6 °C
04.03.2018 20:49 24,4 °C 0,2 °C 42 % 66 % 998,0 hPa 0,0 l/m² 5,0 km/h (1 Bft) O-NO 67 ° -5,4 °C 0,2 °C
04.03.2018 20:51 24,5 °C 0,1 °C 42 % 66 % 997,9 hPa 0,0 l/m² 9,7 km/h (2 Bft) O-NO 67 ° -5,5 °C -3,1 °C
04.03.2018 20:53 24,5 °C 0,1 °C 42 % 66 % 998,1 hPa 0,0 l/m² 10,8 km/h (2 Bft) O 90 ° -5,5 °C -4,0 °C
04.03.2018 20:55 24,5 °C 0,1 °C 42 % 66 % 998,1 hPa 0,0 l/m² 8,6 km/h (2 Bft) O 90 ° -5,5 °C -2,1 °C
04.03.2018 20:57 24,5 °C 0,1 °C 43 % 67 % 998,0 hPa 0,0 l/m² 6,1 km/h (2 Bft) O 90 ° -5,3 °C 0,1 °C
04.03.2018 20:59 24,6 °C -0,1 °C 43 % 67 % 998,0 hPa 0,0 l/m² 5,4 km/h (2 Bft) O-NO 67 ° -5,5 °C -0,1 °C
04.03.2018 21:01 24,6 °C -0,1 °C 43 % 67 % 998,1 hPa 0,0 l/m² 5,4 km/h (2 Bft) O-NO 67 ° -5,5 °C -0,1 °C
04.03.2018 21:03 24,6 °C -0,1 °C 43 % 67 % 998,1 hPa 0,0 l/m² 7,2 km/h (2 Bft) O 90 ° -5,5 °C -0,9 °C
04.03.2018 21:05 24,6 °C -0,1 °C 43 % 67 % 998,0 hPa 0,0 l/m² 7,2 km/h (2 Bft) O-NO 67 ° -5,5 °C -0,9 °C
04.03.2018 21:07 24,6 °C -0,2 °C 44 % 67 % 998,0 hPa 0,0 l/m² 10,4 km/h (2 Bft) O-NO 67 ° -5,6 °C -4,0 °C
04.03.2018 21:09 24,6 °C -0,2 °C 44 % 67 % 998,0 hPa 0,0 l/m² 4,3 km/h (1 Bft) O-NO 67 ° -5,6 °C -0,2 °C
04.03.2018 21:11 24,7 °C -0,2 °C 44 % 67 % 998,1 hPa 0,0 l/m² 4,3 km/h (1 Bft) O-NO 67 ° -5,6 °C -0,2 °C
04.03.2018 21:13 24,7 °C -0,3 °C 44 % 67 % 998,2 hPa 0,0 l/m² 4,3 km/h (1 Bft) O-NO 67 ° -5,7 °C -0,3 °C
04.03.2018 21:15 24,7 °C -0,4 °C 44 % 68 % 998,1 hPa 0,0 l/m² 2,2 km/h (1 Bft) O-NO 67 ° -5,6 °C -0,4 °C
04.03.2018 21:17 24,7 °C -0,4 °C 44 % 68 % 998,1 hPa 0,0 l/m² 0,0 km/h (0 Bft) O-NO 67 ° -5,6 °C -0,4 °C
04.03.2018 21:19 24,7 °C -0,5 °C 44 % 68 % 998,1 hPa 0,0 l/m² 1,8 km/h (1 Bft) O-NO 67 ° -5,7 °C -0,5 °C
04.03.2018 21:21 24,8 °C -0,5 °C 44 % 68 % 998,1 hPa 0,0 l/m² 2,5 km/h (1 Bft) O-NO 67 ° -5,7 °C -0,5 °C
04.03.2018 21:23 24,8 °C -0,6 °C 44 % 68 % 998,0 hPa 0,0 l/m² 3,6 km/h (1 Bft) O-NO 67 ° -5,8 °C -0,6 °C
04.03.2018 21:25 24,8 °C -0,7 °C 44 % 69 % 998,0 hPa 0,0 l/m² 3,6 km/h (1 Bft) O-NO 67 ° -5,7 °C -0,7 °C
04.03.2018 21:27 24,8 °C -0,7 °C 44 % 69 % 998,0 hPa 0,0 l/m² 0,0 km/h (0 Bft) NO 45 ° -5,7 °C -0,7 °C
04.03.2018 21:29 24,8 °C -0,7 °C 44 % 69 % 998,1 hPa 0,0 l/m² 0,0 km/h (0 Bft) NO 45 ° -5,7 °C -0,7 °C
04.03.2018 21:31 24,8 °C -0,7 °C 44 % 69 % 998,0 hPa 0,0 l/m² 0,0 km/h (0 Bft) NO 45 ° -5,7 °C -0,7 °C
04.03.2018 21:33 24,8 °C -0,8 °C 44 % 69 % 998,0 hPa 0,0 l/m² 1,4 km/h (1 Bft) O-NO 67 ° -5,8 °C -0,8 °C
04.03.2018 21:35 24,8 °C -0,9 °C 44 % 69 % 998,0 hPa 0,0 l/m² 4,0 km/h (1 Bft) O-NO 67 ° -5,9 °C -0,9 °C
04.03.2018 21:37 24,8 °C -0,9 °C 44 % 69 % 998,0 hPa 0,0 l/m² 3,6 km/h (1 Bft) O 90 ° -5,9 °C -0,9 °C
04.03.2018 21:39 24,8 °C -1,0 °C 44 % 70 % 998,0 hPa 0,0 l/m² 5,0 km/h (1 Bft) O-NO 67 ° -5,8 °C -1,0 °C
04.03.2018 21:41 24,8 °C -1,1 °C 44 % 70 % 998,0 hPa 0,0 l/m² 4,7 km/h (1 Bft) O-NO 67 ° -5,9 °C -1,1 °C
04.03.2018 21:43 24,8 °C -1,1 °C 44 % 70 % 998,0 hPa 0,0 l/m² 0,0 km/h (0 Bft) O-NO 67 ° -5,9 °C -1,1 °C
04.03.2018 21:45 24,8 °C -1,1 °C 44 % 70 % 998,0 hPa 0,0 l/m² 2,2 km/h (1 Bft) O-NO 67 ° -5,9 °C -1,1 °C
04.03.2018 21:47 24,8 °C -1,1 °C 44 % 71 % 998,0 hPa 0,0 l/m² 0,0 km/h (0 Bft) O-NO 67 ° -5,7 °C -1,1 °C
04.03.2018 21:49 24,8 °C -1,1 °C 43 % 71 % 998,0 hPa 0,0 l/m² 4,0 km/h (1 Bft) NO 45 ° -5,7 °C -1,1 °C
04.03.2018 21:51 24,8 °C -1,1 °C 43 % 71 % 998,0 hPa 0,0 l/m² 2,9 km/h (1 Bft) NO 45 ° -5,7 °C -1,1 °C
04.03.2018 21:53 24,9 °C -1,2 °C 43 % 71 % 998,0 hPa 0,0 l/m² 0,0 km/h (0 Bft) NO 45 ° -5,8 °C -1,2 °C
04.03.2018 21:55 24,8 °C -1,2 °C 43 % 71 % 997,9 hPa 0,0 l/m² 4,7 km/h (1 Bft) O-NO 67 ° -5,8 °C -1,2 °C
04.03.2018 21:57 24,8 °C -1,2 °C 43 % 71 % 997,9 hPa 0,0 l/m² 6,5 km/h (2 Bft) O-NO 67 ° -5,8 °C -1,3 °C
04.03.2018 21:59 24,8 °C -1,2 °C 43 % 71 % 997,9 hPa 0,0 l/m² 8,3 km/h (2 Bft) O 90 ° -5,8 °C -3,2 °C
04.03.2018 22:01 24,8 °C -1,2 °C 42 % 71 % 998,0 hPa 0,0 l/m² 8,3 km/h (2 Bft) O 90 ° -5,8 °C -3,2 °C
04.03.2018 22:03 24,8 °C -1,2 °C 42 % 71 % 997,9 hPa 0,0 l/m² 5,0 km/h (1 Bft) O 90 ° -5,8 °C -1,2 °C
04.03.2018 22:05 24,8 °C -1,2 °C 42 % 72 % 997,8 hPa 0,0 l/m² 5,0 km/h (1 Bft) O 90 ° -5,6 °C -1,2 °C
04.03.2018 22:07 24,8 °C -1,2 °C 42 % 72 % 997,9 hPa 0,0 l/m² 6,8 km/h (2 Bft) O-NO 67 ° -5,6 °C -1,6 °C
04.03.2018 22:09 24,8 °C -1,3 °C 42 % 72 % 997,8 hPa 0,0 l/m² 4,0 km/h (1 Bft) O 90 ° -5,7 °C -1,3 °C
04.03.2018 22:11 24,7 °C -1,3 °C 42 % 72 % 998,0 hPa 0,0 l/m² 4,3 km/h (1 Bft) O 90 ° -5,7 °C -1,3 °C
04.03.2018 22:13 24,7 °C -1,3 °C 41 % 72 % 997,9 hPa 0,0 l/m² 4,0 km/h (1 Bft) O-NO 67 ° -5,7 °C -1,3 °C
04.03.2018 22:15 24,7 °C -1,3 °C 41 % 72 % 998,0 hPa 0,0 l/m² 6,5 km/h (2 Bft) O 90 ° -5,7 °C -1,4 °C
04.03.2018 22:17 24,7 °C -1,3 °C 41 % 73 % 998,0 hPa 0,0 l/m² 6,5 km/h (2 Bft) O 90 ° -5,5 °C -1,4 °C
04.03.2018 22:19 24,7 °C -1,4 °C 41 % 73 % 997,8 hPa 0,0 l/m² 6,1 km/h (2 Bft) O 90 ° -5,6 °C -1,4 °C
04.03.2018 22:21 24,7 °C -1,4 °C 41 % 73 % 997,9 hPa 0,0 l/m² 6,1 km/h (2 Bft) O 90 ° -5,6 °C -1,4 °C
04.03.2018 22:23 24,6 °C -1,4 °C 41 % 73 % 997,9 hPa 0,0 l/m² 10,1 km/h (2 Bft) O 90 ° -5,6 °C -5,1 °C
04.03.2018 22:25 24,6 °C -1,4 °C 41 % 73 % 997,8 hPa 0,0 l/m² 7,2 km/h (2 Bft) O 90 ° -5,6 °C -2,3 °C
04.03.2018 22:27 24,6 °C -1,4 °C 41 % 74 % 997,9 hPa 0,0 l/m² 8,3 km/h (2 Bft) O 90 ° -5,4 °C -3,4 °C
04.03.2018 22:29 24,6 °C -1,5 °C 41 % 74 % 997,9 hPa 0,0 l/m² 9,4 km/h (2 Bft) O 90 ° -5,5 °C -4,6 °C
04.03.2018 22:31 24,6 °C -1,5 °C 41 % 74 % 997,9 hPa 0,0 l/m² 9,4 km/h (2 Bft) O 90 ° -5,5 °C -4,6 °C
04.03.2018 22:33 24,6 °C -1,5 °C 41 % 74 % 997,9 hPa 0,0 l/m² 7,6 km/h (2 Bft) O 90 ° -5,5 °C -2,8 °C
04.03.2018 22:35 24,6 °C -1,5 °C 41 % 74 % 997,9 hPa 0,0 l/m² 10,4 km/h (2 Bft) O-NO 67 ° -5,5 °C -5,5 °C
04.03.2018 22:37 24,6 °C -1,5 °C 41 % 74 % 997,7 hPa 0,0 l/m² 6,8 km/h (2 Bft) O 90 ° -5,5 °C -1,9 °C
04.03.2018 22:39 24,5 °C -1,5 °C 41 % 74 % 997,8 hPa 0,0 l/m² 9,4 km/h (2 Bft) O 90 ° -5,5 °C -4,6 °C
04.03.2018 22:41 24,5 °C -1,5 °C 41 % 74 % 997,8 hPa 0,0 l/m² 9,7 km/h (2 Bft) O 90 ° -5,5 °C -4,8 °C
04.03.2018 22:43 24,5 °C -1,5 °C 41 % 74 % 997,8 hPa 0,0 l/m² 7,9 km/h (2 Bft) O 90 ° -5,5 °C -3,1 °C
04.03.2018 22:45 24,5 °C -1,5 °C 41 % 75 % 997,8 hPa 0,0 l/m² 8,6 km/h (2 Bft) O 90 ° -5,3 °C -3,8 °C
04.03.2018 22:47 24,5 °C -1,5 °C 41 % 75 % 997,7 hPa 0,0 l/m² 7,9 km/h (2 Bft) O-NO 67 ° -5,3 °C -3,1 °C
04.03.2018 22:49 24,5 °C -1,5 °C 41 % 75 % 997,7 hPa 0,0 l/m² 8,6 km/h (2 Bft) O 90 ° -5,3 °C -3,8 °C
04.03.2018 22:51 24,4 °C -1,5 °C 41 % 75 % 997,8 hPa 0,0 l/m² 9,7 km/h (2 Bft) O 90 ° -5,3 °C -4,8 °C
04.03.2018 22:53 24,5 °C -1,5 °C 41 % 75 % 997,8 hPa 0,0 l/m² 10,1 km/h (2 Bft) O 90 ° -5,3 °C -5,2 °C
04.03.2018 22:55 24,4 °C -1,5 °C 41 % 75 % 997,8 hPa 0,0 l/m² 10,4 km/h (2 Bft) O 90 ° -5,3 °C -5,5 °C
04.03.2018 22:57 24,4 °C -1,5 °C 41 % 75 % 997,8 hPa 0,0 l/m² 7,9 km/h (2 Bft) O-NO 67 ° -5,3 °C -3,1 °C
04.03.2018 22:59 24,4 °C -1,4 °C 41 % 76 % 997,8 hPa 0,0 l/m² 9,7 km/h (2 Bft) O-NO 67 ° -5,1 °C -4,7 °C
04.03.2018 23:01 24,4 °C -1,4 °C 41 % 76 % 997,7 hPa 0,0 l/m² 9,7 km/h (2 Bft) O-NO 67 ° -5,1 °C -4,7 °C
04.03.2018 23:03 24,4 °C -1,4 °C 41 % 76 % 997,8 hPa 0,0 l/m² 4,7 km/h (1 Bft) O 90 ° -5,1 °C -1,4 °C
04.03.2018 23:05 24,4 °C -1,4 °C 41 % 76 % 997,8 hPa 0,0 l/m² 6,8 km/h (2 Bft) O 90 ° -5,1 °C -1,8 °C
04.03.2018 23:07 24,4 °C -1,4 °C 41 % 76 % 997,7 hPa 0,0 l/m² 8,3 km/h (2 Bft) O 90 ° -5,1 °C -3,4 °C
04.03.2018 23:09 24,4 °C -1,4 °C 41 % 76 % 997,7 hPa 0,0 l/m² 7,9 km/h (2 Bft) O 90 ° -5,1 °C -3,0 °C
04.03.2018 23:11 24,4 °C -1,4 °C 41 % 76 % 997,8 hPa 0,0 l/m² 7,2 km/h (2 Bft) O-NO 67 ° -5,1 °C -2,3 °C
04.03.2018 23:13 24,4 °C -1,4 °C 41 % 76 % 997,8 hPa 0,0 l/m² 9,4 km/h (2 Bft) O 90 ° -5,1 °C -4,5 °C
04.03.2018 23:15 24,4 °C -1,4 °C 41 % 76 % 997,9 hPa 0,0 l/m² 6,8 km/h (2 Bft) O 90 ° -5,1 °C -1,8 °C
04.03.2018 23:17 24,4 °C -1,4 °C 41 % 76 % 997,7 hPa 0,0 l/m² 6,8 km/h (2 Bft) O-NO 67 ° -5,1 °C -1,8 °C
04.03.2018 23:19 24,4 °C -1,4 °C 41 % 76 % 997,8 hPa 0,0 l/m² 7,9 km/h (2 Bft) O-NO 67 ° -5,1 °C -3,0 °C
04.03.2018 23:21 24,4 °C -1,5 °C 41 % 76 % 997,8 hPa 0,0 l/m² 9,7 km/h (2 Bft) O 90 ° -5,2 °C -4,8 °C
04.03.2018 23:23 24,3 °C -1,5 °C 41 % 76 % 997,9 hPa 0,0 l/m² 6,8 km/h (2 Bft) O 90 ° -5,2 °C -1,9 °C
04.03.2018 23:25 24,3 °C -1,5 °C 41 % 76 % 997,9 hPa 0,0 l/m² 8,6 km/h (2 Bft) O 90 ° -5,2 °C -3,8 °C
04.03.2018 23:27 24,3 °C -1,5 °C 41 % 76 % 997,8 hPa 0,0 l/m² 7,6 km/h (2 Bft) O 90 ° -5,2 °C -2,8 °C
04.03.2018 23:29 24,4 °C -1,5 °C 41 % 77 % 997,9 hPa 0,0 l/m² 7,6 km/h (2 Bft) O 90 ° -5,0 °C -2,8 °C
04.03.2018 23:31 24,4 °C -1,6 °C 41 % 77 % 997,9 hPa 0,0 l/m² 7,6 km/h (2 Bft) O 90 ° -5,1 °C -2,9 °C
04.03.2018 23:33 24,3 °C -1,6 °C 40 % 77 % 997,9 hPa 0,0 l/m² 7,6 km/h (2 Bft) O 90 ° -5,1 °C -2,9 °C
04.03.2018 23:35 24,3 °C -1,6 °C 41 % 77 % 998,0 hPa 0,0 l/m² 8,3 km/h (2 Bft) O 90 ° -5,1 °C -3,6 °C
04.03.2018 23:37 24,4 °C -1,6 °C 41 % 77 % 998,0 hPa 0,0 l/m² 6,1 km/h (2 Bft) O 90 ° -5,1 °C -1,6 °C
04.03.2018 23:39 24,3 °C -1,6 °C 40 % 77 % 998,0 hPa 0,0 l/m² 4,7 km/h (1 Bft) O 90 ° -5,1 °C -1,6 °C
04.03.2018 23:41 24,3 °C -1,6 °C 40 % 77 % 998,0 hPa 0,0 l/m² 5,4 km/h (2 Bft) O 90 ° -5,1 °C -1,6 °C
04.03.2018 23:43 24,3 °C -1,6 °C 40 % 77 % 998,0 hPa 0,0 l/m² 4,3 km/h (1 Bft) O 90 ° -5,1 °C -1,6 °C
04.03.2018 23:45 24,3 °C -1,6 °C 40 % 77 % 998,0 hPa 0,0 l/m² 3,6 km/h (1 Bft) O 90 ° -5,1 °C -1,6 °C
04.03.2018 23:47 24,3 °C -1,6 °C 40 % 77 % 998,0 hPa 0,0 l/m² 2,5 km/h (1 Bft) O 90 ° -5,1 °C -1,6 °C
04.03.2018 23:49 24,3 °C -1,6 °C 40 % 77 % 998,0 hPa 0,0 l/m² 2,9 km/h (1 Bft) O 90 ° -5,1 °C -1,6 °C
04.03.2018 23:51 24,3 °C -1,6 °C 40 % 77 % 998,0 hPa 0,0 l/m² 0,0 km/h (0 Bft) O 90 ° -5,1 °C -1,6 °C
04.03.2018 23:53 24,3 °C -1,6 °C 40 % 77 % 998,0 hPa 0,0 l/m² 2,5 km/h (1 Bft) O 90 ° -5,1 °C -1,6 °C
04.03.2018 23:55 24,3 °C -1,6 °C 40 % 77 % 998,0 hPa 0,0 l/m² 2,5 km/h (1 Bft) O 90 ° -5,1 °C -1,6 °C
04.03.2018 23:57 24,3 °C -1,5 °C 40 % 77 % 998,1 hPa 0,0 l/m² 4,0 km/h (1 Bft) O 90 ° -5,0 °C -1,5 °C
04.03.2018 23:59 24,3 °C -1,5 °C 40 % 78 % 998,0 hPa 0,0 l/m² 8,6 km/h (2 Bft) O 90 ° -4,8 °C -3,8 °C
_ Min-Zeit 07:19 04:17 10:07 17:33 23:17 - 23:51 - - 04:17 06:43
Minimum _ 23,9 °C -6,7 °C 33 % 52 % 997,7 hPa - 0,0 km/h (0 Bft) - - -11,4 °C -16,1 °C
_ Max-Zeit 21:53 14:47 21:47 23:59 02:03 23:59 14:39 - - 15:11 15:45
Maximum _ 24,9 °C 9,0 °C 44 % 78 % 1003,8 hPa 0,0 l/m² 26,3 km/h
O-SO (4 Bft)
- - 1,1 °C 8,2 °C
Durchschnitt _ 24,2 °C -0,1 °C 38 % 64 % 1000,8 hPa #0,0 l/m² 10,1 km/h (2 Bft) O - -6,1 °C -3,6 °C
© 2009 Mathias Hoßbach